     2              OBSERVATION DATA    G                   RINEX VERSION / TYPE
Leica SKI-Pro 3.0 V3 11-9-5 16:00                           PGM / RUN BY / DATE
                                                            OBSERVER / AGENCY
bigref                                                      MARKER NAME
bigref                                                      MARKER NUMBER
0000 LEICA SR530 4.20                                       REC # / TYPE / VERS
LEIAT502                                                    ANT # / TYPE
  -207601.7220 -5240330.4610  3617865.0841                  APPROX POSITION XYZ
        0.3600        0.0000        0.0000                  ANTENNA: DELTA H/E/N
L1PhaOff: 0.0683 L2PhaOff: 0.0712                           COMMENT
     1     1                                                WAVELENGTH FACT L1/2
     4    C1    L1    P2    L2                              # / TYPES OF OBSERV
  2005     4    10    14    17   40.000000                  TIME OF FIRST OBS
  2005     4    10    21    58   10.000000                  TIME OF LAST OBS
    13                                                      LEAP SECONDS
    16                                                      # OF SATELLITES
C1 P1 L1 D1 P2 L2 D2                                        COMMENT
   G 1     0     0     0     0     0     0     0            PRN / # OF OBS
   G 2  2888     0  2888     0  2888  2888     0            PRN / # OF OBS
   G 3     0     0     0     0     0     0     0            PRN / # OF OBS
   G 4  1531     0  1531     0  1531  1531     0            PRN / # OF OBS
   G 5  2811     0  2811     0  2811  2811     0            PRN / # OF OBS
   G 6  3587     0  3587     0  3581  3581     0            PRN / # OF OBS
   G 7     0     0     0     0     0     0     0            PRN / # OF OBS
   G 8     0     0     0     0     0     0     0            PRN / # OF OBS
   G 9  1884     0  1884     0  1858  1858     0            PRN / # OF OBS
   G10  3621     0  3621     0  3609  3609     0            PRN / # OF OBS
   G11     0     0     0     0     0     0     0            PRN / # OF OBS
   G12     0     0     0     0     0     0     0            PRN / # OF OBS
   G13     0     0     0     0     0     0     0            PRN / # OF OBS
   G14   710     0   710     0   695   695     0            PRN / # OF OBS
   G15  1338     0  1338     0  1332  1332     0            PRN / # OF OBS
   G16     0     0     0     0     0     0     0            PRN / # OF OBS
   G17     0     0     0     0     0     0     0            PRN / # OF OBS
   G18  2666     0  2666     0  2647  2647     0            PRN / # OF OBS
   G19     0     0     0     0     0     0     0            PRN / # OF OBS
   G20     0     0     0     0     0     0     0            PRN / # OF OBS
   G21  2649     0  2649     0  2647  2647     0            PRN / # OF OBS
   G22  1262     0  1262     0  1251  1251     0            PRN / # OF OBS
   G23     0     0     0     0     0     0     0            PRN / # OF OBS
   G24   142     0   142     0   125   125     0            PRN / # OF OBS
   G25     0     0     0     0     0     0     0            PRN / # OF OBS
   G26  3190     0  3190     0  3180  3180     0            PRN / # OF OBS
   G27     0     0     0     0     0     0     0            PRN / # OF OBS
   G28    64     0    64     0    40    40     0            PRN / # OF OBS
   G29  3159     0  3159     0  3137  3137     0            PRN / # OF OBS
   G30  2674     0  2674     0  2648  2648     0            PRN / # OF OBS
   G31     0     0     0     0     0     0     0            PRN / # OF OBS
   G32     0     0     0     0     0     0     0            PRN / # OF OBS
                                                            END OF HEADER
  5  4 10 14 17 40.0000000  0  6G 2G 4G 5G 9G24G28
  21087289.464   110814461.78848  21087287.220    86348920.21749
  20218202.370   106247378.78349  20218202.221    82790156.86549
  22423376.107   117835637.01947  22423376.028    91819981.59548
  23290740.769   122393669.01647  23290741.334    95371692.71748
  23135182.420   121576194.37548  23135183.423    94734705.01448
  23740191.228   124755551.21646  23740192.147    97212115.16346
  5  4 10 14 17 45.0000000  0  6G 2G 4G 5G 9G24G28
  21085471.895   110804910.40148  21085469.652    86341477.57949
  20219292.237   106253106.04549  20219292.088    82794619.65949
  22420816.737   117822187.46947  22420816.655    91809501.42648
  23292457.408   122402689.95647  23292457.982    95378722.00948
  23138007.188   121591038.56948  23138008.192    94746271.91048
  23743534.475   124773119.84846  23743535.407    97225804.94046
  5  4 10 14 17 50.0000000  0  6G 2G 4G 5G 9G24G28
  21083655.725   110795366.39048  21083653.475    86334040.69849
  20220383.599   106258841.19149  20220383.452    82799088.60949
  22418258.482   117808743.83947  22418258.392    91799025.88948
  23294175.513   122411718.59247  23294176.092    95385757.29048
  23140831.779   121605881.80048  23140832.796    94757838.03548
  23746878.082   124790690.58746  23746879.014    97239496.42346
  5  4 10 14 17 55.0000000  0  6G 2G 4G 5G 9G24G28
  21081899.653   110786138.20348  21081897.395    86326849.91149
  20221535.145   106264892.60449  20221534.998    82803803.99949
  22415760.044   117795614.52447  22415759.959    91788795.25648
  23295953.759   122421063.37347  23295954.352    95393038.93848
  23143714.873   121621032.49848  23143715.899    94769643.76248
  23750280.768   124808571.75946  23750281.708    97253429.79147
  5  4 10 14 18  0.0000000  0  6G 2G 4G 5G 9G24G28
  21080115.841   110776764.17448  21080113.577    86319545.47049
  20222659.033   106270798.67449  20222658.885    82808406.12849
  22413233.567   117782337.95647  22413233.487    91778449.90148
  23297704.333   122430262.67147  23297704.940    95400207.20948
  23146568.615   121636029.01748  23146569.655    94781329.35648
  23753654.707   124826301.83846  23753655.663    97267245.41746
  5  4 10 14 18  5.0000000  0  6G 2G 4G 5G 9G24G28
  21078275.115   110767091.06348  21078272.842    86312007.97149
  20223726.083   106276406.05949  20223725.936    82812775.52349
  22410649.917   117768760.81247  22410649.842    91767870.30648
  23299398.036   122439163.10747  23299398.651    95407142.60748
  23149363.849   121650718.06948  23149364.890    94792775.37548
  23756970.696   124843727.41246  23756971.658    97280823.76846
  5  4 10 14 18 10.0000000  0  6G 2G 4G 5G 9G24G28
  21076465.474   110757581.39848  21076463.194    86304597.85649
  20224824.335   106282177.38149  20224824.188    82817272.65049
  22408097.084   117755345.64546  22408097.001    91757416.94248
  23301122.896   122448227.27647  23301123.525    95414205.58448
  23152188.611   121665562.19948  23152189.658    94804342.20548
  23760316.760   124861311.12946  23760317.722    97294525.37446
  5  4 10 14 18 15.0000000  0  7G 2G 4G 5G 9G10G24G28
  21074687.007   110748235.49048  21074684.719    86297315.33149
  20225953.820   106288112.83449  20225953.660    82821897.67949
  22405575.174   117742092.92146  22405575.104    91747090.13248
  23302878.956   122457455.46647  23302879.591    95421396.38248
  24529285.346   128902262.76256         0.000           0.00040
  23155042.924   121680561.71848  23155043.980    94816030.14448
  23763692.983   124879053.23846  23763693.951    97308350.37446
  5  4 10 14 18 20.0000000  0  7G 2G 4G 5G 9G10G24G28
  21072910.482   110738899.82048  21072908.193    86290040.78549
  20227085.323   106294058.92249  20227085.163    82826530.99549
  22403054.894   117728848.82346  22403054.830    91736770.06248
  23304637.025   122466694.11547  23304637.667    95428595.31548
  24525646.469   128883142.70746         0.000           0.00040
  23157897.589   121695563.05348  23157898.658    94827719.48048
  23767070.149   124896800.17745  23767071.118    97322179.12046
  5  4 10 14 18 25.0000000  0  7G 2G 4G 5G 9G10G24G28
  21071106.657   110729420.75349  21071104.363    86282654.52749
  20228189.638   106299862.13949  20228189.478    82831052.98349
  22400507.072   117715459.98846  22400507.020    91726337.20648
  23306367.852   122475789.58147  23306368.502    95435682.66948
  24521978.196   128863867.43146  24521981.253   100413415.20657
  23160723.370   121710412.60248  23160724.448    94839290.55448
  23770418.953   124914398.32745  23770419.916    97335891.98246
  5  4 10 14 18 30.0000000  0  7G 2G 4G 5G 9G10G24G28
  21069305.021   110719953.08948  21069302.733    86275277.12449
  20229296.190   106305677.10749  20229296.030    82835584.12849
  22397961.132   117702081.11146  22397961.092    91715912.12048
  23308100.880   122484896.67447  23308101.544    95442779.09448
  24518310.235   128844591.72646  24518313.056   100398395.17647
  23163549.722   121725265.14748  23163550.806    94850863.95548
  23773768.936   124932002.48345  23773769.907    97349609.47846
  5  4 10 14 18 35.0000000  0  7G 2G 4G 5G 9G10G24G28
  21067505.594   110710497.09948  21067503.314    86267908.83649
  20230405.048   106311504.10149  20230404.881    82840124.62649
  22395417.156   117688712.48947  22395417.128    91705495.01248
  23309836.159   122494015.56547  23309836.830    95449884.70648
  24514642.138   128825315.90246  24514644.925   100383375.07547
  23166376.683   121740120.89748  23166377.775    94862439.85948
  23777120.107   124949612.81545  23777121.085    97363331.77146
  5  4 10 14 18 40.0000000  0  7G 2G 4G 5G 9G10G24G28
  21065708.483   110701053.18848  21065706.217    86260549.93049
  20231516.232   106317343.44649  20231516.066    82844674.77249
  22392875.194   117675354.54647  22392875.184    91695086.24148
  23311573.769   122503146.70347  23311574.454    95456999.86248
  24510974.152   128806040.31946  24510976.994   100368355.13547
  23169204.331   121754980.22448  23169205.437    94874018.53748
  23780472.513   124967229.85745  23780473.485    97377059.35346
  5  4 10 14 18 45.0000000  0  7G 2G 4G 5G 9G10G24G28
  21063943.067   110691775.86348  21063940.808    86253320.84249
  20232659.207   106323349.81749  20232659.041    82849355.06249
  22390364.692   117662161.80047  22390364.695    91684806.17448
  23313343.120   122512444.64347  23313343.819    95464244.99048
  24507335.649   128786919.51346  24507338.471   100353455.80547
  23172062.075   121769997.73848  23172063.189    94885720.48948
  23783855.621   124985008.05645  23783856.587    97390912.46546
  5  4 10 14 18 50.0000000  0  7G 2G 4G 5G 9G10G24G28
  21062180.128   110682511.61649  21062177.868    86246101.96249
  20233804.736   106329369.61349  20233804.562    82854045.81449
  22387856.395   117648980.73348  22387856.410    91674535.23048
  23315114.949   122521755.73146  23315115.655    95471500.39548
  24503697.301   128767799.99045  24503700.113   100338557.52547
  23174920.692   121785019.84348  23174921.821    94897426.01648
  23787240.151   125002793.81945  23787241.119    97404771.49446
  5  4 10 14 18 55.0000000  0  7G 2G 4G 5G 9G10G24G28
  21060361.206   110672953.08548  21060358.946    86238653.75049
  20234894.331   106335095.44249  20234894.158    82858507.49749
  22385291.858   117635504.06547  22385291.873    91664033.94348
  23316830.814   122530772.63046  23316831.528    95478526.54448
  24500000.777   128748374.46846  24500003.524   100323420.73547
  23177721.706   121799739.20748  23177722.842    94908895.63748
  23790567.644   125020279.85045  23790568.614    97418396.96846
  5  4 10 14 19  0.0000000  0  7G 2G 4G 5G 9G10G24G28
  21058603.584   110663716.72049  21058601.325    86231456.58449
  20236045.309   106341143.84449  20236045.124    82863220.53949
  22382788.379   117622348.16247  22382788.399    91653782.57448
  23318608.013   122540111.84446  23318608.741    95485803.83948
  24496363.290   128729259.34545  24496365.967   100308525.86247
  23180582.401   121814772.26048  23180583.551    94920609.70048
  23793955.438   125038082.64144  23793956.424    97432269.23446
  5  4 10 14 19  5.0000000  0  7G 2G 4G 5G 9G10G24G28
  21056819.455   110654341.03048  21056817.197    86224150.84749
  20237169.815   106347053.16149  20237169.630    82867825.20249
  22380258.116   117609051.57047  22380258.142    91643421.59448
  23320358.724   122549311.82847  23320359.459    95492972.64348
  24492697.091   128709993.12445  24492699.720   100293513.19146
  23183414.980   121829657.50248  23183416.139    94932208.57848
  23797315.643   125055740.57544  23797316.637    97446028.65246
  5  4 10 14 19 10.0000000  0  7G 2G 4G 5G 9G10G24G28
  21055038.177   110644980.44148  21055035.911    86216856.90349
  20238297.264   106352977.94549  20238297.086    82872441.91649
  22377730.471   117595768.70747  22377730.510    91633071.30148
  23322112.303   122558526.95047  23322113.039    95500153.26248
  24489031.494   128690730.24845  24489034.043   100278503.17047
  23186248.802   121844549.30748  23186249.976    94943812.57348
  23800677.688   125073408.05044  23800678.696    97459795.47046
  5  4 10 14 19 15.0000000  0  7G 2G 4G 5G 9G10G24G28
  21053259.870   110635635.34848  21053257.619    86209575.00149
  20239427.710   106358918.44849  20239427.525    82877070.87549
  22375205.527   117582500.06847  22375205.573    91622732.10548
  23323868.852   122567757.67347  23323869.587    95507346.03448
  24485366.610   128671471.18545  24485369.142   100263496.10646
  23189083.953   121859448.09248  23189085.140    94955422.00548
  23804041.601   125091085.56644  23804042.596    97473570.17446
  5  4 10 14 19 20.0000000  0  7G 2G 4G 5G 9G10G24G28
  21051513.926   110626460.41248  21051511.669    86202425.72449
  20240590.599   106365029.44049  20240590.408    82881832.68549
  22372712.710   117569400.22648  22372712.755    91612524.43448
  23325657.793   122577158.56147  23325658.529    95514671.38648
  24481731.814   128652370.48345  24481734.337   100248612.49946
  23191949.864   121874508.49548  23191951.066    94967157.36648
  23807436.929   125108927.72945  23807437.932    97487473.06946
  5  4 10 14 19 25.0000000  0  7G 2G 4G 5G 9G10G24G28
  21049741.883   110617148.16948  21049739.634    86195169.40949
  20241727.410   106371003.42349  20241727.219    82886487.73949
  22370193.514   117556161.79048  22370193.572    91602208.76748
  23327420.620   122586422.21947  23327421.357    95521889.81148
  24478068.743   128633120.88546  24478071.221   100233612.81147
  23194788.007   121889423.06747  23194789.223    94978779.11248
  23810804.977   125126627.00245  23810805.967    97501264.73445
  5  4 10 14 19 30.0000000  0  7G 2G 4G 5G 9G10G24G28
  21047914.471   110607545.11748  21047912.222    86187686.52749
  20242808.924   106376686.78549  20242808.726    82890916.32849
  22367618.730   117542631.24147  22367618.788    91591665.48948
  23329128.099   122595395.08247  23329128.835    95528881.64948
  24474348.093   128613568.77046  24474350.551   100218377.38247
  23197569.211   121904038.30247  23197570.435    94990167.58648
  23814116.668   125144029.96445  23814117.645    97514825.46945
  5  4 10 14 19 35.0000000  0  7G 2G 4G 5G 9G10G24G28
  21046178.398   110598421.99048  21046176.149    86180577.59849
  20243981.808   106382850.33249  20243981.611    82895719.09649
  22365135.027   117529579.32847  22365135.093    91581495.17348
  23330926.926   122604847.91646  23330927.669    95536247.47848
  24470716.579   128594484.90746  24470718.989   100203506.83447
  23200440.092   121919124.91347  23200441.329    95001923.38648
  23817518.583   125161907.23845  23817519.551    97528755.83146
  5  4 10 14 19 40.0000000  0  7G 2G 4G 5G 9G10G24G28
  21044416.479   110589163.04548  21044414.231    86173362.83849
  20245128.905   106388878.36849  20245128.708    82900416.26449
  22362625.242   117516390.31547  22362625.314    91571218.01648
  23332699.903   122614164.91146  23332700.646    95543507.45948
  24467056.951   128575253.55545  24467059.330   100188521.39347
  23203283.516   121934067.14347  23203284.767    95013566.66448
  23820893.615   125179643.15445  23820894.563    97542576.03445
  5  4 10 14 19 45.0000000  0  7G 2G 4G 5G 9G10G24G28
  21042658.142   110579922.89148  21042655.889    86166162.72049
  20246279.616   106394925.39749  20246279.426    82905128.23449
  22360118.783   117503218.81947  22360118.870    91560954.51648
  23334476.451   122623500.67247  23334477.195    95550782.06848
  24463398.668   128556029.33645  24463401.079   100173541.50047
  23206128.873   121949019.56446  23206130.138    95025217.88948
  23824271.217   125197392.29245  23824272.158    97556406.47045
  5  4 10 14 19 50.0000000  0  7G 2G 4G 5G 9G10G24G28
  21040874.135   110570547.83948  21040871.874    86158857.47949
  20247404.685   106400837.64049  20247404.488    82909735.17549
  22357586.423   117489911.17448  22357586.510    91550584.92448
  23336227.317   122632701.47247  23336228.067    95557951.50548
  24459712.500   128536658.58145  24459714.926   100158447.44346
  23208946.925   121963828.46447  23208948.204    95036757.27448
  23827622.013   125215000.87344  23827622.938    97570127.45045
  5  4 10 14 19 55.0000000  0  7G 2G 4G 5G 9G10G24G28
  21039123.182   110561346.51848  21039120.922    86151687.62049
  20248562.862   106406923.90549  20248562.666    82914477.71849
  22355086.884   117476776.04148  22355086.972    91540349.76548
  23338011.238   122642075.94846  23338012.003    95565256.26648
  24456057.221   128517449.99546  24456059.659   100143479.70547
  23211796.396   121978802.50647  23211797.689    95048425.34348
  23831004.842   125232777.63144  23831005.773    97583979.43845
  5  4 10 14 20  0.0000000  0  7G 2G 4G 5G 9G10G24G28
  21037376.102   110552165.55248  21037373.836    86144533.62749
  20249724.961   106413030.74349  20249724.758    82919236.29149
  22352590.994   117463660.01948  22352591.083    91530129.48748
  23339799.004   122651470.71946  23339799.774    95572576.86148
  24452403.546   128498250.05146  24452406.013   100128518.73047
  23214648.105   121993788.27647  23214649.418    95060102.54048
  23834390.473   125250569.05844  23834391.405    97597842.84845
  5  4 10 14 20  5.0000000  0  7G 2G 4G 5G 9G10G24G28
  21035662.302   110543159.50048  21035660.036    86137515.93449
  20250920.365   106419312.63549  20250920.169    82924131.26949
  22350128.141   117450717.63747  22350128.238    91520044.51548
  23341620.039   122661040.29447  23341620.824    95580033.66248
  24448780.964   128479213.40846  24448783.450   100113685.00347
  23217531.435   122008940.27747  23217532.762    95071909.29048
  23837808.269   125268529.75944  23837809.188    97611838.22145
  5  4 10 14 20 10.0000000  0  7G 2G 4G 5G 9G10G24G28
  21033864.690   110533712.98948  21033862.431    86130155.01249
  20252031.982   106425154.22249  20252031.780    82928683.16149
  22347581.246   117437333.58547  22347581.343    91509615.37848
  23343357.228   122670169.31547  23343358.020    95587147.19048
  24445072.354   128459724.72046  24445074.832   100098499.04847
  23220329.329   122023643.24547  23220330.662    95083366.12948
  23841141.238   125286044.37845  23841142.178    97625485.91345
  5  4 10 14 20 15.0000000  0  7G 2G 4G 5G 9G10G24G28
  21032159.176   110524750.45248  21032156.918    86123171.22149
  20253235.743   106431479.99548  20253235.541    82933612.32849
  22345126.199   117424432.28647  22345126.303    91499562.42948
  23345186.501   122679782.20947  23345187.292    95594637.75248
  24441453.668   128440708.42746  24441456.132   100083681.17347
  23223217.670   122038821.55147  23223219.010    95095193.36948
  23844565.225   125304037.36645  23844566.164    97639506.37945
  5  4 10 14 20 20.0000000  0  7G 2G 4G 5G 9G10G24G28
  21030399.355   110515502.56249  21030397.091    86115965.08749
  20254385.225   106437520.53347  20254385.016    82938319.23849
  22342616.633   117411244.39747  22342616.737    91489286.14548
  23346961.450   122689109.63047  23346962.255    95601905.86548
  24437778.478   128421395.17346  24437780.922   100068631.89547
  23226050.052   122053705.82047  23226051.399    95106791.49948
  23847933.807   125321739.31945  23847934.746    97653300.09645
  5  4 10 14 20 25.0000000  0  7G 2G 4G 5G 9G10G24G28
  21028643.924   110506277.67748  21028641.660    86108776.85949
  20255539.097   106443584.20448  20255538.888    82943044.18349
  22340111.201   117398078.29447  22340111.306    91479026.85348
  23348740.763   122698459.91747  23348741.567    95609191.79048
  24434105.477   128402093.36046  24434107.902   100053591.52247
  23228885.184   122068604.44147  23228886.537    95118400.78948
  23851305.682   125339458.61245  23851306.623    97667107.33645
  5  4 10 14 20 30.0000000  0  7G 2G 4G 5G 9G10G24G28
  21026892.985   110497076.42849  21026890.720    86101607.05149
  20256697.505   106449671.64649  20256697.290    82947787.64449
  22337610.064   117384934.70047  22337610.170    91468785.08948
  23350524.542   122707833.67847  23350525.347    95616496.00648
  24430434.762   128382803.62346  24430437.188   100038560.56247
  23231723.142   122083518.01147  23231724.496    95130021.75648
  23854680.954   125357195.84844  23854681.882    97680928.58545
  5  4 10 14 20 35.0000000  0  7G 2G 4G 5G 9G10G24G28
  21025175.980   110488053.47649  21025173.716    86094576.17649
  20257889.862   106455937.46349  20257889.648    82952670.08749
  22335142.610   117371968.17548  22335142.716    91458681.30948
  23352342.206   122717385.56647  23352343.005    95623939.04248
  24426795.747   128363680.62946  24426798.185   100023659.55047
  23234593.382   122098601.16447  23234594.749    95141774.84048
  23858089.099   125375105.61444  23858090.035    97694884.21345
  5  4 10 14 20 40.0000000  0  7G 2G 4G 5G 9G10G24G28
  21023434.410   110478901.46648  21023432.140    86087444.74449
  20259057.670   106462074.36849  20259057.456    82957452.09649
  22332650.394   117358871.46147  22332650.501    91448476.07348
  23354135.285   122726808.22747  23354136.084    95631281.37048
  24423129.997   128344417.07846  24423132.448   100008649.00047
  23237437.401   122113546.55547  23237438.763    95153420.59948
  23861471.579   125392880.69944  23861472.523    97708734.93445
  5  4 10 14 20 45.0000000  0  7G 2G 4G 5G 9G10G24G28
  21021668.433   110469621.25848  21021666.164    86080213.42949
  20260201.115   106468083.17649  20260200.901    82962134.28249
  22330133.555   117345645.41247  22330133.669    91438170.06748
  23355903.932   122736102.50046  23355904.732    95638523.65748
  24419437.650   128325013.78645  24419440.081    99993529.59147
  23240255.370   122128355.08047  23240256.724    95164959.71248
  23864828.604   125410521.89144  23864829.557    97722481.30145
  5  4 10 14 20 50.0000000  0  7G 2G 4G 5G 9G10G24G28
  21019966.060   110460675.22748  21019963.798    86073242.49749
  20261408.162   106474426.22349  20261407.949    82967076.91049
  22327680.072   117332752.33247  22327680.193    91428123.52548
  23357736.137   122745730.71047  23357736.950    95646026.12948
  24415806.740   128305933.16446  24415809.151    99978661.57247
  23243135.270   122143489.05847  23243136.619    95176752.42848
  23868248.130   125428491.43244  23868249.101    97736483.48245
  5  4 10 14 20 55.0000000  0  7G 2G 4G 5G 9G10G24G28
  21018210.159   110451447.93648  21018207.891    86066052.41349
  20262561.699   106480488.10249  20262561.479    82971800.45649
  22325172.857   117319576.86347  22325172.979    91417856.93348
  23359514.756   122755077.38547  23359515.576    95653309.24348
  24412120.087   128286559.82945  24412122.498    99963565.50047
  23245960.000   122158333.02247  23245961.348    95188319.13148
  23871612.981   125446174.09344  23871613.938    97750262.23945
  5  4 10 14 21  0.0000000  0  7G 2G 4G 5G 9G10G24G28
  21016488.761   110442401.92849  21016486.487    86059003.58049
  20263749.726   106486731.25549  20263749.513    82976665.25549
  22322699.937   117306581.54747  22322700.073    91407730.70448
  23361327.815   122764605.10446  23361328.635    95660733.44548
  24408465.745   128267356.25545  24408468.154    99948601.69847
  23248817.560   122173349.53848  23248818.901    95200020.30248
  23875012.052   125464032.26944         0.000           0.00040
  5  4 10 14 21  5.0000000  0  7G 2G 4G 5G 9G10G24G28
  21014772.685   110433383.88648  21014770.410    86051976.53549
  20264943.109   106493002.46349  20264942.896    82981551.89949
  22320232.113   117293613.07747  22320232.250    91397625.41248
  23363146.156   122774160.55046  23363146.982    95668179.24348
  24404814.548   128248169.14645  24404816.958    99933650.72247
  23251678.772   122188385.30647  23251680.112    95211736.48248
  23878414.637   125481912.56844         0.000           0.00040
  5  4 10 14 21 10.0000000  0  7G 2G 4G 5G 9G10G24G28
  21013032.747   110424240.38848  21013030.479    86044851.71349
  20266112.617   106499148.27149  20266112.405    82986340.84249
  22317740.205   117280518.01448  22317740.349    91387421.46448
  23364940.582   122783590.22846  23364941.421    95675527.01248
  24401137.258   128228845.13846  24401139.675    99918593.11447
  23254514.445   122203286.80947  23254515.780    95223348.03848
  23881792.010   125499661.59744         0.000           0.00040
  5  4 10 14 21 15.0000000  0  7G 2G 4G 5G 9G10G24G28
  21011327.632   110415279.94948  21011325.357    86037869.55649
  20267316.956   106505477.08249  20267316.737    82991272.37849
  22315282.934   117267604.96347  22315283.086    91377359.34948
  23366769.787   122793202.70546  23366770.634    95683017.24048
  24397492.687   128209692.75946  24397495.105    99903669.17947
  23257383.284   122218362.62548  23257384.612    95235095.42348
  23885203.325   125517587.89644         0.000           0.00040
  5  4 10 14 21 20.0000000  0  7G 2G 4G 5G 9G10G24G28
  21009598.894   110406195.39849  21009596.619    86030790.69249
  20268497.684   106511681.85149  20268497.465    82996107.26449
  22312801.824   117254566.67548  22312801.970    91367199.65748
  23368575.316   122802690.76046  23368576.176    95690410.50848
  24393822.289   128190404.81246  24393824.696    99888639.65547
  23260226.822   122233305.51848  23260228.149    95246739.23448
  23888589.875   125535384.27543         0.000           0.00040
  5  4 10 14 21 25.0000000  0  6G 2G 4G 5G 9G10G24
  21007875.976   110397141.46749  21007873.694    86023735.69849
  20269684.251   106517917.26749  20269684.025    83000966.03049
  22310326.342   117241557.92848  22310326.489    91357062.97848
  23370386.607   122812209.09447  23370387.479    95697827.36948
  24390155.579   128171136.02746  24390157.996    99873625.00747
  23263074.531   122248270.23847  23263075.859    95258400.03648
  5  4 10 14 21 30.0000000  0  6G 2G 4G 5G 9G10G24
  21006129.647   110387964.38148  21006127.367    86016584.71549
  20270847.369   106524029.52549  20270847.151    83005728.83449
  22307827.221   117228424.96248  22307827.377    91346829.49848
  23372174.374   122821603.93646  23372175.247    95705148.04248
  24386463.231   128151732.63746  24386465.642    99858505.49847
  23265897.116   122263102.98948  23265898.437    95269958.02148
  5  4 10 14 21 35.0000000  0  6G 2G 4G 5G 9G10G24
  21004418.607   110378972.83748  21004416.327    86009578.32349
  20272045.810   106530327.34749  20272045.586    83010636.22549
  22305363.207   117215476.51248  22305363.363    91336739.80748
  23373997.406   122831183.93946  23373998.286    95712612.95648
  24382804.020   128132503.48045  24382806.426    99843521.77447
  23268753.348   122278112.52848  23268754.670    95281653.75348
  5  4 10 14 21 40.0000000  0  7G 2G 4G 5G 9G10G24G28
  21002713.729   110370013.58549  21002711.451    86002597.07949
  20273250.390   106536657.42649  20273250.167    83015568.75249
  22302905.145   117202559.27848  22302905.302    91326674.42648
  23375826.489   122840795.89847  23375827.361    95720102.80648
  24379148.785   128113295.18345  24379151.206    99828554.28947
  23271614.045   122293145.53148  23271615.367    95293367.76948
  23902153.887   125606667.95154         0.000           0.00040
  5  4 10 14 21 45.0000000  0  7G 2G 4G 5G 9G10G24G28
  21001015.136   110361087.44448  21001012.850    85995641.65549
  20274461.252   106543020.54649  20274461.028    83020527.02549
  22300453.183   117189674.12848  22300453.348    91316634.05248
  23377661.820   122850440.56747  23377662.693    95727618.12148
  24375497.685   128094108.61746  24375500.121    99813603.73847
  23274479.365   122308202.82848  23274480.688    95305100.71748
  23905564.808   125624593.55444         0.000           0.00040
  5  4 10 14 21 50.0000000  0  7G 2G 4G 5G 9G10G24G28
  20999293.643   110352040.94149  20999291.365    85988592.42949
  20275649.189   106549263.17049  20275648.973    83025391.40049
  22297978.117   117176667.54048  22297978.283    91306499.04548
  23379474.152   122859964.46847  23379475.031    95735039.34148
  24371821.514   128074790.30246  24371823.966    99798550.53247
  23277320.077   122323130.86847  23277321.399    95316732.95248
  23908951.742   125642392.89244         0.000           0.00040
  5  4 10 14 21 55.0000000  0  7G 2G 4G 5G 9G10G24G28
  20997578.680   110343028.71948  20997576.394    85981569.91449
  20276843.650   106555540.10549  20276843.428    83030282.52249
  22295509.387   117163694.24648  22295509.548    91296389.98648
  23381292.965   122869522.26847  23381293.851    95742486.94848
  24368149.728   128055494.90446  24368152.185    99783515.17147
  23280165.646   122338084.37447  23280166.962    95328385.02748
  23912344.419   125660220.83943         0.000           0.00040
  5  4 10 14 22  0.0000000  0  7G 2G 4G 5G 9G10G24G28
  20995870.349   110334051.41149  20995868.058    85974574.62349
  20278044.756   106561851.92649  20278044.533    83035200.81849
  22293047.116   117150754.85848  22293047.271    91286307.34448
  23383118.320   122879114.54446  23383119.214    95749961.44248
  24364482.401   128036223.03546  24364484.849    99768498.16747
  23283016.166   122353063.95347  23283017.480    95340057.42248
  23915742.507   125678077.66544         0.000           0.00040
  5  4 10 14 22  5.0000000  0  7G 2G 4G 5G 9G10G24G28
  20994168.869   110325110.04249  20994166.579    85967607.31949
  20279252.682   106568199.58749  20279252.453    83040147.04849
  22290591.484   117137850.39548  22290591.634    91276251.91848
  23384950.431   122888742.29246  23384951.318    95757463.57348
  24360819.760   128016975.75546  24360822.199    99753500.32147
  23285871.850   122368070.61247  23285873.165    95351750.91148
  23919146.447   125695964.49044         0.000           0.00040
  5  4 10 14 22 10.0000000  0  7G 2G 4G 5G 9G10G24G28
  20992503.569   110316358.86349  20992501.273    85960788.23249
  20280496.774   106574737.33749  20280496.552    83045241.39349
  22288171.856   117125135.13147  22288172.000    91266343.92148
  23386818.651   122898559.75947  23386819.552    95765113.52148
  24357191.192   127997907.37646  24357193.621    99738641.83947
  23288762.029   122383258.54447  23288763.345    95363585.65248
  23922585.412   125714035.52944         0.000           0.00040
  5  4 10 14 22 15.0000000  0  7G 2G 4G 5G 9G10G24G28
  20990757.412   110307182.71249  20990755.115    85953637.97749
  20281659.968   106580849.96149  20281659.740    83050004.48549
  22285671.158   117111993.87547  22285671.295    91256103.98548
  23388605.891   122907951.73547  23388606.804    95772431.92748
  24353479.551   127978402.60646  24353481.963    99723443.34447
  23291569.640   122398012.54547  23291570.949    95375082.25948
  23925942.271   125731675.75044         0.000           0.00040
  5  4 10 14 22 20.0000000  0  7G 2G 4G 5G 9G10G24G28
  20989047.646   110298197.86548  20989045.343    85946636.81149
  20282859.535   106587153.76149  20282859.313    83054916.53849
  22283206.678   117099042.94547  22283206.823    91246012.35248
  23390429.444   122917534.53846  23390430.356    95779899.03748
  24349802.177   127959077.90446  24349804.583    99708385.15047
  23294411.947   122412948.93747  23294413.255    95386720.99648
  23929334.309   125749501.31244         0.000           0.00040
  5  4 10 14 22 25.0000000  0  7G 2G 4G 5G 9G10G24G28
  20987374.421   110289405.00848  20987372.119    85939785.23649
  20284095.623   106593649.38249  20284095.402    83059978.05149
  22280778.551   117086283.05247  22280778.689    91236069.58348
  23392289.430   122927308.83646  23392290.357    95787515.36648
  24346159.191   127939933.88646  24346161.585    99693467.74547
  23297289.091   122428068.37047  23297290.401    95398502.36448
  23932761.768   125767512.88744         0.000           0.00040
  5  4 10 14 22 30.0000000  0  7G 2G 4G 5G 9G10G24G28
  20985679.230   110280496.68848  20985676.928    85932843.68049
  20285309.725   106600029.53449  20285309.504    83064949.59749
  22278328.265   117073406.77747  22278328.404    91226036.13548
  23394127.361   122936967.19746  23394128.288    95795041.35648
  24342492.108   127920663.10646  24342494.482    99678451.54047
  23300142.583   122443063.51047  23300143.886    95410186.87748
  23936166.172   125785403.12344         0.000           0.00040
  5  4 10 14 22 35.0000000  0  7G 2G 4G 5G 9G10G24G28
  20983991.533   110271627.81049  20983989.231    85925932.87549
  20286531.296   106606448.93549  20286531.076    83069951.73049
  22275885.322   117060568.99147  22275885.461    91216032.66348
  23395972.678   122946664.46647  23395973.598    95802597.68648
  24338830.345   127901420.50946  24338832.700    99663457.34447
  23303001.873   122458089.11647  23303003.182    95421895.12348
  23939576.944   125803326.78744         0.000           0.00040
  5  4 10 14 22 40.0000000  0  7G 2G 4G 5G 9G10G24G28
  20982282.117   110262644.77048  20982279.816    85918933.10649
  20287731.122   106612754.06049  20287730.901    83074864.81349
  22273420.456   117047616.06448  22273420.597    91205939.48748
  23397796.184   122956246.99147  23397797.105    95810064.57948
  24335144.730   127882052.46946  24335147.058    99648365.38047
  23305837.726   122472991.62747  23305839.028    95433507.47148
  23942964.822   125821130.26744         0.000           0.00040
  5  4 10 14 22 45.0000000  0  7G 2G 4G 5G 9G10G24G28
  20980639.051   110254010.39648  20980636.742    85912205.02549
  20288997.271   106619407.68649  20288997.057    83080049.44749
  22271021.787   117035010.94448  22271021.936    91196117.31048
  23399685.939   122966177.62747  23399686.854    95817802.72248
  24331523.323   127863021.88046  24331525.640    99633536.37047
  23308738.228   122488233.83347  23308739.522    95445384.50648
  23946417.927   125839276.39844         0.000           0.00040
  5  4 10 14 22 50.0000000  0  7G 2G 4G 5G 9G10G24G28
  20978945.160   110245108.97048  20978942.857    85905268.85149
  20290212.556   106625794.02049  20290212.336    83085025.81149
  22268572.113   117022137.82048  22268572.264    91186086.31048
  23401524.759   122975840.62547  23401525.680    95825332.31348
  24327848.936   127843712.94046  24327851.253    99618490.46347
  23311586.214   122503200.00747  23311587.507    95457046.43848
  23949819.077   125857149.49543         0.000           0.00040
  5  4 10 14 22 55.0000000  0  7G 2G 4G 5G 9G10G24G28
  20977288.505   110236403.15848  20977286.204    85898485.09949
  20291465.028   106632375.80649  20291464.808    83090154.47449
  22266159.491   117009459.40848  22266159.642    91176207.02848
  23403400.682   122985698.63746  23403401.602    95833013.87148
  24324209.618   127824588.44446  24324211.927    99603588.31647
  23314469.718   122518352.83047  23314471.012    95468853.81248
  23953256.293   125875212.12644         0.000           0.00040
  5  4 10 14 23  0.0000000  0  7G 2G 4G 5G 9G10G24G28
  20975610.581   110227585.61049  20975608.274    85891614.28849
  20292696.205   106638845.65449  20292695.986    83095195.91049
  22263725.444   116996668.36948  22263725.595    91166239.98248
  23405255.228   122995444.31447  23405256.156    95840607.89648
  24320546.937   127805340.98947  24320549.255    99588590.31547
  23317330.242   122533384.92147  23317331.530    95480567.12448
  23956671.107   125893157.06444         0.000           0.00040
  5  4 10 14 23  5.0000000  0  7G 2G 4G 5G 9G10G24G28
  20973911.544   110218657.10849  20973909.237    85884657.01549
  20293906.213   106645204.28949  20293905.994    83100150.69349
  22261270.094   116983765.45248  22261270.254    91156185.77048
  23407088.560   123005078.41247  23407089.495    95848114.95648
  24316861.017   127785971.34746  24316863.342    99573497.08947
  23320167.938   122548297.05347  23320169.225    95492186.95048
  23960063.654   125910984.95444         0.000           0.00040
  5  4 10 14 23 10.0000000  0  7G 2G 4G 5G 9G10G24G28
  20972220.784   110209772.10748  20972218.477    85877733.63949
  20295124.448   106651606.19049  20295124.230    83105139.19549
  22258822.872   116970905.17948  22258823.026    91146164.78048
  23408930.033   123014755.32247  23408930.974    95855655.38148
  24313181.206   127766633.99947  24313183.533    99558429.07147
  23323012.172   122563243.60647  23323013.452    95503833.61548
  23963463.382   125928850.27343         0.000           0.00040
  5  4 10 14 23 15.0000000  0  6G 2G 4G 5G 9G10G24
  20970567.748   110201085.31349  20970565.435    85870964.70849
  20296380.378   106658206.11649  20296380.166    83110281.98349
  22256413.195   116958242.24448  22256413.351    91136297.56448
  23410809.086   123024629.78546  23410810.035    95863349.75748
  24309537.001   127747483.66347  24309539.323    99543506.76547
  23325892.424   122578379.37047  23325893.705    95515627.70548
  5  4 10 14 23 20.0000000  0  6G 2G 4G 5G 9G10G24
  20968835.335   110191981.42149  20968833.023    85863870.76749
  20297556.881   106664388.65049  20297556.656    83115099.54449
  22253923.992   116945161.35948  22253924.141    91126104.66748
  23412608.629   123034086.47847  23412609.583    95870718.60748
  24305811.309   127727905.05447  24305813.620    99528250.72948
  23328691.578   122593089.02047  23328692.857    95527089.76748
  5  4 10 14 23 25.0000000  0  6G 2G 4G 5G 9G10G24
  20967199.418   110183384.65048  20967197.099    85857171.99649
  20298829.842   106671078.10249  20298829.624    83120312.10249
  22251531.115   116932586.74248  22251531.266    91116306.27448
  23414504.547   123044049.62447  23414505.501    95878482.10548
  24302180.008   127708822.40547  24302182.309    99513381.14948
  23331585.517   122608296.74347  23331586.789    95538939.93548
  5  4 10 14 23 30.0000000  0  6G 2G 4G 5G 9G10G24
  20965513.626   110174525.78548  20965511.314    85850268.98849
  20300052.863   106677505.09149  20300052.639    83125320.14349
  22249088.214   116919749.20548  22249088.373    91106303.00348
  23416350.474   123053749.97147  23416351.435    95886040.80148
  24298496.708   127689466.53647  24298498.999    99498298.67247
  23334427.876   122623233.34647  23334429.148    95550578.82648
  5  4 10 14 23 35.0000000  0  6G 2G 4G 5G 9G10G24
  20963866.016   110165867.50448  20963863.705    85843522.27449
  20301314.017   106684132.46949  20301313.793    83130484.32849
  22246683.323   116907111.41847  22246683.482    91096455.37848
  23418234.446   123063650.21947  23418235.409    95893755.26748
  24294849.447   127670300.14046  24294851.724    99483363.85047
  23337306.662   122638361.47047  23337307.921    95562366.98248
  5  4 10 14 23 40.0000000  0  6G 2G 4G 5G 9G10G24
  20962198.008   110157102.09349  20962195.697    85836692.09049
  20302554.719   106690652.39949  20302554.495    83135564.79749
  22244257.889   116894365.64748  22244258.050    91086523.60948
  23420097.884   123073442.58848  23420098.846    95901385.66948
  24291179.692   127651015.48246  24291181.965    99468336.86047
  23340163.369   122653373.40847  23340164.628    95574064.56148
  5  4 10 14 23 45.0000000  0  6G 2G 4G 5G 9G10G24
  20960509.765   110148230.28549  20960507.454    85829778.98949
  20303775.121   106697065.62849  20303774.891    83140562.11349
  22241812.052   116881512.65848  22241812.216    91076508.29348
  23421940.923   123083127.82447  23421941.892    95908932.60248
  24287487.562   127631613.33346  24287489.843    99453218.33147
  23342998.070   122668269.86447  23342999.329    95585672.19048
  5  4 10 14 23 50.0000000  0  6G 2G 4G 5G 9G10G24
  20958889.333   110139714.89149  20958887.023    85823143.62249
  20305063.295   106703834.99449  20305063.065    83145836.93849
  22239433.877   116869015.26248  22239434.040    91066770.06348
  23423851.660   123093168.68947  23423852.630    95916756.63048
  24283861.126   127612556.40446  24283863.408    99438368.81347
  23345898.860   122683513.58747  23345900.105    95597550.41648
  5  4 10 14 23 55.0000000  0  6G 2G 4G 5G 9G10G24
  20957219.613   110130940.41848  20957217.303    85816306.36749
  20306302.105   106710344.98749  20306301.875    83150909.65949
  22237006.258   116856258.00548  22237006.415    91056829.34448
  23425712.919   123102949.73547  23425713.883    95924378.24148
  24280183.306   127593229.33146  24280185.591    99423308.76547
  23348748.633   122698489.18347  23348749.872    95609219.70248
  5  4 10 14 24  0.0000000  0  6G 2G 4G 5G 9G10G24
  20955588.606   110122369.45249  20955586.296    85809627.69949
  20307579.573   106717058.12349  20307579.343    83156140.67749
  22234617.226   116843703.52748  22234617.392    91047046.62948
  23427612.763   123112933.51346  23427613.731    95932157.80448
  24276542.096   127574094.70746  24276544.388    99408398.68147
  23351635.397   122713659.16847  23351636.637    95621040.45948
  5  4 10 14 24  5.0000000  0  6G 2G 4G 5G 9G10G24
  20953908.499   110113540.42748  20953906.188    85802747.93949
  20308807.857   106723512.77149  20308807.621    83161170.27049
  22232178.923   116830890.22148  22232179.089    91037062.24848
  23429463.356   123122658.44646  23429464.324    95939735.67248
  24272849.654   127554690.97946  24272851.940    99393278.94047
  23354471.322   122728562.02447  23354472.555    95632653.07148
  5  4 10 14 24 10.0000000  0  6G 2G 4G 5G 9G10G24
  20952238.036   110104762.08549  20952235.718    85795907.67449
  20310045.733   106730017.85249  20310045.504    83166239.16349
  22229750.148   116818126.86248  22229750.322    91027116.76349
  23431323.441   123132433.25647  23431324.407    95947352.40048
  24269164.758   127535326.90946  24269167.052    99378190.09647
  23357315.156   122743506.44147  23357316.389    95644298.06448
  5  4 10 14 24 15.0000000  0  6G 2G 4G 5G 9G10G24
  20950635.884   110096342.75248  20950633.566    85789347.16149
  20311351.864   106736881.58749  20311351.628    83171587.52449
  22227389.529   116805721.75648  22227389.704    91017450.45649
  23433251.685   123142566.21647  23433252.645    95955248.21248
  24265546.094   127516310.79646  24265548.402    99363372.35947
  23360225.566   122758800.68447  23360226.798    95656215.64148
  5  4 10 14 24 20.0000000  0  6G 2G 4G 5G 9G10G24
  20948955.657   110087513.06848  20948953.340    85782466.88549
  20312579.840   106743334.61149  20312579.611    83176615.84449
  22224950.693   116792905.55448  22224950.869    91007463.80548
  23435101.685   123152288.00147  23435102.645    95962823.62148
  24261847.229   127496873.28346  24261849.538    99348226.28747
  23363056.149   122773675.46947  23363057.374    95667806.37748
  5  4 10 14 24 25.0000000  0  6G 2G 4G 5G 9G10G24
  20947285.376   110078735.68648  20947283.053    85775627.36849
  20313817.686   106749839.53649  20313817.450    83181684.61949
  22222521.668   116780140.90848  22222521.839    90997517.33448
  23436961.479   123162061.22147  23436962.446    95970439.10348
  24258156.227   127477477.06446  24258158.544    99333112.37847
  23365894.936   122788593.33247  23365896.162    95679430.67648
  5  4 10 14 24 30.0000000  0  6G 2G 4G 5G 9G10G24
  20945625.159   110070011.21749  20945622.829    85768829.09049
  20315065.505   106756396.86949  20315065.270    83186794.23249
  22220102.562   116767428.45648  22220102.742    90987611.53448
  23438831.173   123171886.43848  23438832.154    95978095.08948
  24254473.196   127458122.72846  24254475.513    99318031.10847
  23368742.035   122803554.96947  23368743.260    95691089.09848
  5  4 10 14 24 35.0000000  0  6G 2G 4G 5G 9G10G24
  20944033.759   110061648.28749  20944031.429    85762312.51349
  20316382.069   106763315.42749  20316381.827    83192185.31449
  22217752.130   116755076.85047  22217752.318    90977986.90748
  23440769.512   123182072.32447  23440770.495    95986032.11348
  24250856.887   127439118.92946  24250859.192    99303222.97047
  23371656.208   122818868.95947  23371657.434    95703022.05648
  5  4 10 14 24 40.0000000  0  6G 2G 4G 5G 9G10G24
  20942394.045   110053031.53549  20942391.708    85755598.16049
  20317650.246   106769979.71049  20317650.005    83197378.25849
  22215353.264   116742470.72247  22215353.459    90968163.95348
  23442659.344   123192003.48747  23442660.326    95993770.68748
  24247190.204   127419850.34747  24247192.496    99288208.49747
  23374520.315   122833919.94147  23374521.533    95714750.09648
  5  4 10 14 24 45.0000000  0  6G 2G 4G 5G 9G10G24
  20940735.430   110044315.48749  20940733.093    85748806.44049
  20318899.431   106776544.22249  20318899.189    83202493.45949
  22212935.362   116729764.59348  22212935.558    90958263.08448
  23444530.100   123201834.37847  23444531.082    96001431.12248
  24243502.509   127400471.47247  24243504.789    99273108.10647
  23377363.785   122848862.41547  23377365.009    95726393.56347
  5  4 10 14 24 50.0000000  0  6G 2G 4G 5G 9G10G24
  20939116.614   110035808.54848  20939114.270    85742177.66249
  20320188.346   106783317.48549  20320188.104    83207771.32249
  22210557.135   116717266.93048  22210557.332    90948524.64648
  23446440.505   123211873.52947  23446441.487    96009253.81548
  24239852.538   127381290.77846  24239854.804    99258162.12448
  23380245.290   122864004.79547  23380246.515    95738192.81548
  5  4 10 14 24 55.0000000  0  6G 2G 4G 5G 9G10G24
  20937449.775   110027049.25248  20937447.439    85735352.23649
  20321429.156   106789837.95349  20321428.908    83212852.20549
  22208130.768   116704516.28248  22208130.973    90938589.07848
  23448302.688   123221659.33747  23448303.670    96016879.11248
  24236152.480   127361846.84146  24236154.731    99243011.00648
  23383077.020   122878885.63747  23383078.244    95749788.27348
  5  4 10 14 25  0.0000000  0  6G 2G 4G 5G 9G10G24
  20935822.952   110018500.24148  20935820.610    85728690.67649
  20322709.888   106796568.21749  20322709.641    83218096.56149
  22205744.278   116691975.22448  22205744.477    90928816.83848
  23450204.693   123231654.43847  23450205.667    96024667.50348
  24232490.339   127342602.19346  24232492.577    99228015.19147
  23385947.020   122893967.52447  23385948.237    95761540.38448
  5  4 10 14 25  5.0000000  0  6G 2G 4G 5G 9G10G24
  20934177.609   110009853.90248  20934175.267    85721953.26949
  20323972.009   106803200.70949  20323971.762    83223264.73549
  22203339.155   116679336.21848  22203339.355    90918968.26648
  23452088.008   123241551.26347  23452088.983    96032379.30748
  24228807.599   127323249.32646  24228809.824    99212935.05747
  23388796.745   122908942.90047  23388797.976    95773209.49348
  5  4 10 14 25 10.0000000  0  6G 2G 4G 5G 9G10G24
  20932601.817   110001573.06148  20932599.483    85715500.66749
  20325303.590   106810198.18249  20325303.343    83228717.30749
  22201003.457   116667062.04048  22201003.656    90909403.97048
  23454040.689   123251812.60947  23454041.665    96040375.15048
  24225192.332   127304250.99846  24225194.550    99198131.17647
  23391714.249   122924274.48647  23391715.479    95785156.18247
  5  4 10 14 25 15.0000000  0  6G 2G 4G 5G 9G10G24
  20930949.133   109992888.17848  20930946.798    85708733.23049
  20326558.179   106816791.08849  20326557.931    83233854.63349
  22198590.749   116654383.17748  22198590.956    90899524.33648
  23455916.288   123261668.85647  23455917.272    96048055.32048
  24221498.100   127284837.77346  24221500.291    99183004.02247
  23394553.120   122939192.79347  23394554.364    95796780.81547
  5  4 10 14 25 20.0000000  0  6G 2G 4G 5G 9G10G24
  20929366.185   109984569.73348  20929363.852    85702251.32949
  20327882.405   106823749.94749  20327882.157    83239277.11949
  22196247.664   116642070.15248  22196247.873    90889929.77148
  23457861.421   123271890.59547  23457862.410    96056020.30648
  24217871.535   127265780.07746  24217873.720    99168153.88147
  23397459.950   122954468.25846  23397461.188    95808683.77147
  5  4 10 14 25 25.0000000  0  6G 2G 4G 5G 9G10G24
  20927706.525   109975848.12748  20927704.185    85695455.27049
  20329129.817   106830305.14249  20329129.570    83244385.06549
  22193827.738   116629353.35347  22193827.947    90880020.57848
  23459729.647   123281708.09847  23459730.644    96063670.28748
  24214166.173   127246308.36446  24214168.352    99152981.14447
  23400288.302   122969331.28247  23400289.552    95820265.32547
  5  4 10 14 25 30.0000000  0  6G 2G 4G 5G 9G10G24
  20926116.765   109967493.91648  20926114.432    85688945.49749
  20330447.055   106837227.23949  20330446.808    83249778.90349
  22191477.609   116617003.33948  22191477.817    90870397.19048
  23461667.576   123291891.95247  23461668.567    96071605.75848
  24210528.671   127227193.19346  24210530.842    99138086.21347
  23403184.822   122984552.47547  23403186.073    95832125.97147
  5  4 10 14 25 35.0000000  0  6G 2G 4G 5G 9G10G24
  20924450.460   109958737.45549  20924448.120    85682122.29349
  20331687.636   106843746.53949  20331687.389    83254858.87549
  22189050.827   116604250.48648  22189051.023    90860459.90248
  23463528.757   123301672.49347  23463529.748    96079226.95148
  24206812.546   127207664.91546  24206814.710    99122869.39847
  23406003.006   122999362.09846  23406004.256    95843665.92747
  5  4 10 14 25 40.0000000  0  6G 2G 4G 5G 9G10G24
  20922854.259   109950349.36149  20922851.927    85675586.11649
  20332998.215   106850633.64749  20332997.961    83260225.45049
  22186694.039   116591865.45148  22186694.236    90850809.22248
  23465459.835   123311820.28147  23465460.819    96087134.30248
  24203164.462   127188494.13846  24203166.620    99107931.14247
  23408889.513   123014530.79746  23408890.770    95855485.68947
  5  4 10 14 25 45.0000000  0  6G 2G 4G 5G 9G10G24
  20921240.390   109941868.38849  20921238.051    85668977.56549
  20334291.001   106857427.28249  20334290.747    83265519.19149
  22184319.468   116579386.99548  22184319.671    90841085.74448
  23467373.015   123321874.11047  23467373.998    96094968.45148
  24199496.620   127169219.65346  24199498.777    99092912.09647
  23411756.589   123029597.28646  23411757.846    95867225.79147
  5  4 10 14 25 50.0000000  0  6G 2G 4G 5G 9G10G24
  20919638.229   109933448.97549  20919635.891    85662416.98749
  20335595.412   106864281.97749  20335595.152    83270860.51049
  22181956.503   116566969.53047  22181956.706    90831409.79848
  23469297.695   123331988.37247  23469298.671    96102849.69548
  24195838.470   127149995.94747  24195840.627    99077932.58348
  23414633.589   123044716.02846  23414634.854    95879006.62747
  5  4 10 14 25 55.0000000  0  6G 2G 4G 5G 9G10G24
  20918047.935   109925091.89548  20918045.590    85655904.97049
  20336911.579   106871198.45049  20336911.325    83276249.95849
  22179605.291   116554613.82747  22179605.481    90821781.98948
  23471234.042   123342163.85047  23471235.018    96110778.61848
  24192190.100   127130823.75747  24192192.244    99062993.25148
  23417520.678   123059887.77846  23417521.942    95890828.76947
  5  4 10 14 26  0.0000000  0  6G 2G 4G 5G 9G10G24
  20916440.185   109916643.17348  20916437.839    85649321.56149
  20338210.184   106878022.66449  20338209.931    83281567.53149
  22177236.531   116542165.94247  22177236.721    90812082.34448
  23473152.717   123352246.52747  23473153.686    96118635.24247
  24188522.260   127111549.16047  24188524.398    99047974.09548
  23420388.571   123074958.59646  23420389.842    95902572.24847
  5  4 10 14 26  5.0000000  0  6G 2G 4G 5G 9G10G24
  20914844.432   109908257.40349  20914842.086    85642787.18949
  20339520.661   106884909.20549  20339520.400    83286933.65549
  22174879.666   116529780.50148  22174879.863    90802431.34348
  23475083.169   123362391.02348  23475084.137    96126540.02448
  24184864.350   127092326.67947  24184866.482    99032995.54448
  23423266.643   123090082.96846  23423267.916    95914357.47947
  5  4 10 14 26 10.0000000  0  6G 2G 4G 5G 9G10G24
  20913231.444   109899781.09748  20913229.092    85636182.28149
  20340813.780   106891704.59449  20340813.520    83292228.76549
  22172505.458   116517303.98348  22172505.656    90792709.39448
  23476996.166   123372443.79647  23476997.134    96134373.33348
  24181187.156   127073002.89647  24181189.282    99017938.05647
  23426125.725   123105107.45046  23426127.011    95926064.84047
  5  4 10 14 26 15.0000000  0  6G 2G 4G 5G 9G10G24
  20911630.660   109891368.94749  20911628.315    85629627.36349
  20342118.987   106898563.50149  20342118.721    83297573.37549
  22170143.359   116504891.13248  22170143.558    90783037.05748
  23478921.119   123382559.49547  23478922.080    96142255.69548
  24177520.117   127053732.47647  24177522.237    99002922.14747
  23428995.237   123120186.77646  23428996.531    95937814.94847
  5  4 10 14 26 20.0000000  0  6G 2G 4G 5G 9G10G24
  20910012.861   109882867.35548  20910010.509    85623002.75049
  20343407.071   106905332.36849  20343406.812    83302847.79749
  22167764.161   116492388.36447  22167764.375    90773294.63748
  23480828.827   123392584.60147  23480829.782    96150067.47848
  24173834.019   127034361.93347  24173836.119    98987828.23847
  23431845.935   123135167.26646  23431847.229    95949488.05147
  5  4 10 14 26 25.0000000  0  6G 2G 4G 5G 9G10G24
  20908436.727   109874584.74848  20908434.376    85616548.78149
  20344736.683   106912319.55649  20344736.416    83308292.36849
  22165426.537   116480104.06448  22165426.750    90763722.45748
  23482777.982   123402827.44748  23482778.937    96158048.91248
  24170187.531   127015199.56746  24170189.623    98972896.54147
  23434736.529   123150357.31546  23434737.837    95961324.42147
  5  4 10 14 26 30.0000000  0  6G 2G 4G 5G 9G10G24
  20906843.790   109866213.81049  20906841.446    85610025.96949
  20346049.371   106919217.74449  20346049.104    83313667.57249
  22163071.999   116467730.94847  22163072.214    90754081.08748
  23484710.094   123412980.69947  23484711.056    96165960.52248
  24166522.197   126995938.20246  24166524.283    98957887.70947
  23437608.483   123165449.65946  23437609.791    95973084.71547
  5  4 10 14 26 35.0000000  0  6G 2G 4G 5G 9G10G24
  20905234.107   109857754.83749  20905231.757    85603434.56149
  20347345.180   106926027.23949  20347344.915    83318973.67049
  22160700.631   116455269.35848  22160700.847    90744370.76548
  23486625.228   123423044.70647  23486626.191    96173802.58848
  24162838.083   126976578.11746  24162840.170    98942801.94547
  23440461.958   123180444.58445  23440463.287    95984769.02347
  5  4 10 14 26 40.0000000  0  6G 2G 4G 5G 9G10G24
  20903666.382   109849516.38749  20903664.032    85597014.98849
  20348682.821   106933056.59049  20348682.556    83324451.08749
  22158371.135   116443027.80248  22158371.364    90734831.89148
  23488582.073   123433327.99347  23488583.029    96181815.54248
  24159193.897   126957427.82346  24159195.990    98927879.63747
  23443355.545   123195650.58045  23443356.881    95996617.87047
  5  4 10 14 26 45.0000000  0  6G 2G 4G 5G 9G10G24
  20902082.126   109841191.09748  20902079.769    85590527.75849
  20350003.821   106939998.45949  20350003.549    83329860.33449
  22156025.045   116430699.01548  22156025.274    90725225.04648
  23490522.156   123443523.13547  23490523.107    96189759.80548
  24155531.126   126938180.04846  24155533.212    98912881.42647
  23446230.851   123210760.35145  23446232.195    96008391.70747
  5  4 10 14 26 50.0000000  0  6G 2G 4G 5G 9G10G24
  20900452.109   109832625.30148  20900449.745    85583853.11349
  20351278.909   106946699.08949  20351278.643    83335081.59949
  22153633.105   116418129.28848  22153633.335    90715430.45548
  23492416.223   123453476.49547  23492417.160    96197515.66847
  24151820.586   126918681.06246  24151822.672    98897687.41547
  23449058.569   123225620.10945  23449059.928    96019970.73846
  5  4 10 14 26 55.0000000  0  6G 2G 4G 5G 9G10G24
  20898864.338   109824281.50548  20898861.973    85577351.45549
  20352596.115   106953621.02249  20352595.842    83340475.30849
  22151283.346   116405781.15748  22151283.583    90705808.52148
  23494352.284   123463650.53547  23494353.222    96205443.48548
  24148150.246   126899393.41847  24148152.332    98882658.11047
  23451926.744   123240692.46945  23451928.111    96031715.43746
  5  4 10 14 27  0.0000000  0  6G 2G 4G 5G 9G10G24
  20897289.614   109816006.27348  20897287.243    85570903.23049
  20353926.233   106960610.84149  20353925.961    83345921.92249
  22148946.550   116393501.18248  22148946.782    90696239.71048
  23496301.149   123473891.85647  23496302.093    96213423.72448
  24144490.945   126880163.69446  24144493.037    98867673.90947
  23454806.183   123255823.93045  23454807.564    96043506.15946
  5  4 10 14 27  5.0000000  0  6G 2G 4G 5G 9G10G24
  20895757.350   109807954.20348  20895754.994    85564628.89249
  20355298.680   106967823.09749  20355298.407    83351541.86149
  22146652.141   116381443.94948  22146652.373    90686844.46048
  23498292.234   123484354.98347  23498293.178    96221576.79248
  24140872.079   126861146.48546  24140874.169    98852855.31447
  23457726.278   123271169.10345  23457727.674    96055463.42746
  5  4 10 14 27 10.0000000  0  6G 2G 4G 5G 9G10G24
  20894150.413   109799509.69648  20894148.051    85558048.76449
  20356596.317   106974642.19849  20356596.045    83356855.44049
  22144282.971   116368993.84447  22144283.190    90677143.08248
  23500208.371   123494424.32347  23500209.316    96229423.02448
  24137176.545   126841726.26346  24137178.641    98837722.65047
  23460569.883   123286112.35045  23460571.294    96067107.51446
  5  4 10 14 27 15.0000000  0  6G 2G 4G 5G 9G10G24
  20892586.066   109791289.02648  20892583.704    85551643.05449
  20357936.412   106981684.41049  20357936.140    83362342.87349
  22141956.320   116356767.21448  22141956.541    90667615.84248
  23502166.838   123504716.13447  23502167.776    96237442.62148
  24133521.532   126822519.25546  24133523.606    98822756.20447
  23463454.285   123301269.98345  23463455.710    96078918.65146
  5  4 10 14 27 20.0000000  0  6G 2G 4G 5G 9G10G24
  20890976.527   109782830.84149  20890974.172    85545052.25749
  20359231.152   106988488.28749  20359230.881    83367644.58949
  22139584.393   116344302.71648  22139584.620    90657903.25548
  23504079.858   123514769.08947  23504080.789    96245276.09248
  24129819.340   126803064.16846  24129821.420    98807596.40447
  23466291.667   123316180.68145  23466293.092    96090537.41246
  5  4 10 14 27 25.0000000  0  6G 2G 4G 5G 9G10G24
  20889409.762   109774597.43649  20889407.407    85538636.61849
  20360568.516   106995516.21349  20360568.251    83373120.89649
  22137255.175   116332062.65148  22137255.394    90648365.55748
  23506035.388   123525045.44047  23506036.321    96253283.63548
  24126157.910   126783823.28746  24126159.983    98792603.52347
  23469170.084   123331306.61744  23469171.530    96102323.79245
  5  4 10 14 27 30.0000000  0  6G 2G 4G 5G 9G10G24
  20887856.607   109766435.55049  20887854.252    85532276.70849
  20361919.347   107002614.84649  20361919.075    83378652.29749
  22134939.509   116319893.71648  22134939.729    90638883.26548
  23508004.265   123535391.89547  23508005.197    96261345.79448
  24122508.079   126764643.35747  24122510.145    98777658.14147
  23472060.237   123346494.56844  23472061.683    96114158.58145
  5  4 10 14 27 35.0000000  0  6G 2G 4G 5G 9G10G24
  20886258.528   109758037.55949  20886256.159    85525732.81749
  20363225.093   107009476.55449  20363224.821    83383999.07649
  22132578.831   116307488.33048  22132579.051    90629216.74348
  23509927.943   123545500.79547  23509928.883    96269222.83948
  24118811.290   126745216.72647  24118813.350    98762520.53947
  23474903.714   123361436.94844  23474905.180    96125801.94445
  5  4 10 14 27 40.0000000  0  6G 2G 4G 5G 9G10G24
  20884732.847   109750020.08449  20884730.479    85519485.44349
  20364603.079   107016717.91949  20364602.800    83389641.70049
  22130290.507   116295463.10548  22130290.726    90619846.43848
  23511923.723   123555988.75648  23511924.650    96277395.29748
  24115184.931   126726160.04847  24115186.992    98747671.17947
  23477817.699   123376750.26444  23477819.159    96137734.45145
  5  4 10 14 27 45.0000000  0  6G 2G 4G 5G 9G10G24
  20883162.458   109741767.60249  20883160.083    85513054.93249
  20365936.217   107023723.60849  20365935.945    83395100.67449
  22127957.419   116283202.61348  22127957.632    90610292.80848
  23513874.557   123566240.33048  23513875.483    96285383.50748
  24111511.818   126706857.86847  24111513.880    98732630.55847
  23480685.224   123391819.05544  23480686.705    96149476.32045
  5  4 10 14 27 50.0000000  0  6G 2G 4G 5G 9G10G24
  20881606.009   109733588.43748  20881603.633    85506681.56149
  20367283.135   107030801.71249  20367282.856    83400616.08249
  22125638.213   116271015.07748  22125638.428    90600796.02248
  23515839.037   123576563.68348  23515839.957    96293427.66848
  24107850.686   126687618.48647  24107852.754    98717638.82747
  23483564.897   123406951.58644  23483566.391    96161267.84245
  5  4 10 14 27 55.0000000  0  6G 2G 4G 5G 9G10G24
  20880063.648   109725483.30449  20880061.272    85500365.88149
  20368643.991   107037953.02549  20368643.705    83406188.53349
  22123333.038   116258901.26848  22123333.246    90591356.68548
  23517817.333   123586959.60548  23517818.253    96301528.36748
  24104201.634   126668442.58946  24104203.703    98702696.57247
  23486456.780   123422148.59743  23486458.259    96173109.68445
  5  4 10 14 28  0.0000000  0  5G 2G 4G 5G 9G10
  20878506.136   109717298.52849  20878503.762    85493988.13949
  20369989.522   107045023.83949  20369989.237    83411698.25849
  22121012.652   116246707.52348  22121012.859    90581855.05948
  23519780.180   123597274.40348  23519781.093    96309565.86948
  24100535.425   126649176.56446  24100537.495    98687684.09447
  5  4 10 14 28  5.0000000  0  6G 2G 4G 5G 9G10G24
  20876962.886   109709188.69249  20876960.512    85487668.78849
  20371349.164   107052168.77349  20371348.878    83417265.73049
  22118706.470   116234588.48948  22118706.670    90572411.66548
  23521757.004   123607662.65247  23521757.904    96317660.61048
  24096881.475   126629975.02146  24096883.545    98672721.87447
  23492218.214   123452429.70054         0.000           0.00040
  5  4 10 14 28 10.0000000  0  6G 2G 4G 5G 9G10G24
  20875375.339   109700846.07749  20875372.965    85481168.04749
  20372664.345   107059080.06649  20372664.067    83422651.14649
  22116355.951   116222236.39748  22116356.152    90562786.65248
  23523689.242   123617816.59847  23523690.135    96325572.77248
  24093181.238   126610530.20447  24093183.309    98657570.08647
  23495059.701   123467360.56644         0.000           0.00040
  5  4 10 14 28 15.0000000  0  6G 2G 4G 5G 9G10G24
  20873802.218   109692579.26849  20873799.844    85474726.38149
  20373993.787   107066066.30249  20373993.503    83428094.96449
  22114019.806   116209959.86848  22114020.000    90553220.53148
  23525635.620   123628044.79147  23525636.507    96333542.77748
  24089493.455   126591150.74647  24089495.520    98642469.20847
  23497913.826   123482357.71944         0.000           0.00040
  5  4 10 14 28 20.0000000  0  6G 2G 4G 5G 9G10G24
  20872243.650   109684388.93948  20872241.269    85468344.31049
  20375337.608   107073128.12749  20375337.316    83433597.68749
  22111698.168   116197759.58148  22111698.362    90543713.81348
  23527596.226   123638347.91047  23527597.119    96341571.18948
  24085818.240   126571837.33046  24085820.298    98627419.79147
  23500780.689   123497421.65444         0.000           0.00040
  5  4 10 14 28 25.0000000  0  6G 2G 4G 5G 9G10G24
  20870728.993   109676429.33049  20870726.605    85462142.01349
  20376725.166   107080419.79349  20376724.881    83439279.50349
  22109420.376   116185789.76348  22109420.563    90534386.70348
  23529600.451   123648880.18147  23529601.344    96349778.15448
  24082184.943   126552744.19546  24082187.001    98612542.01447
  23503689.374   123512706.73944         0.000           0.00040
  5  4 10 14 28 30.0000000  0  6G 2G 4G 5G 9G10G24
  20869199.742   109668393.06649  20869197.348    85455879.99149
  20378097.960   107087633.87249  20378097.674    83444900.86149
  22107127.971   116173743.06548  22107128.153    90524999.66648
  23531589.810   123659334.21047  23531590.704    96357924.12448
  24078535.072   126533564.02146  24078537.122    98597596.43347
  23506581.617   123527905.61244         0.000           0.00040
  5  4 10 14 28 35.0000000  0  6G 2G 4G 5G 9G10G24
  20867655.926   109660280.25849  20867653.524    85449558.32249
  20379456.020   107094770.49549  20379455.735    83450461.86049
  22104820.965   116161619.57548  22104821.149    90515552.77748
  23533564.285   123669710.08147  23533565.185    96366009.20048
  24074868.642   126514296.83346  24074870.678    98582583.05247
  23509457.528   123543018.28144         0.000           0.00040
  5  4 10 14 28 40.0000000  0  6G 2G 4G 5G 9G10G24
  20866097.687   109652091.65649  20866095.278    85443177.59549
  20380799.466   107101830.35549  20380799.182    83455963.05149
  22102499.473   116149420.08348  22102499.657    90506046.68648
  23535524.029   123680008.54448  23535524.936    96374033.96148
  24071185.812   126494943.46146  24071187.841    98567502.51147
  23512317.239   123558045.47944         0.000           0.00040
  5  4 10 14 28 45.0000000  0  6G 2G 4G 5G 9G10G24
  20864554.383   109643981.57049  20864551.974    85436858.05549
  20382157.695   107108967.83149  20382157.404    83461524.71349
  22100192.889   116137298.86948  22100193.073    90496601.57848
  23537498.418   123690383.87447  23537499.326    96382118.60347
  24067515.970   126475658.18847  24067517.992    98552475.00047
  23515189.954   123573141.56944         0.000           0.00040
  5  4 10 14 28 50.0000000  0  6G 2G 4G 5G 9G10G24
  20863055.458   109636104.66648  20863053.050    85430720.21349
  20383560.101   107116337.52549  20383559.810    83467267.33349
  22097930.649   116125410.68948  22097930.828    90487338.06548
  23539516.854   123700990.76247  23539517.768    96390383.69147
  24063888.507   126456595.73946  24063890.516    98537621.15447
  23518105.186   123588461.18844         0.000           0.00040
  5  4 10 14 28 55.0000000  0  6G 2G 4G 5G 9G10G24
  20861483.806   109627845.57848  20861481.398    85424284.56149
  20384889.607   107123324.09449  20384889.316    83472711.40449
  22095595.643   116113140.11848  22095595.815    90477776.57548
  23541462.264   123711213.77447  23541463.171    96398349.63647
  24060186.320   126437140.74246  24060188.322    98522461.44647
  23520945.859   123603388.87043         0.000           0.00040
  5  4 10 14 29  0.0000000  0  6G 2G 4G 5G 9G10G24
  20859986.031   109619974.75048  20859983.630    85418151.45049
  20386292.799   107130697.91749  20386292.507    83478457.23849
  22093334.474   116101257.59348  22093334.646    90468517.46848
  23543481.189   123721823.35947  23543482.096    96406616.85847
  24056556.069   126418063.61246  24056558.071    98507596.14047
  23523858.622   123618695.22644         0.000           0.00040
  5  4 10 14 29  5.0000000  0  6G 2G 4G 5G 9G10G24
  20858444.982   109611876.48349  20858442.574    85411841.11449
  20387652.520   107137843.29949  20387652.228    83484025.06749
  22091029.987   116089147.46048  22091030.165    90459081.00348
  23545456.517   123732203.80647  23545457.417    96414705.52948
  24052880.539   126398748.66445  24052882.538    98492545.54447
  23526726.257   123633764.44044         0.000           0.00040
  5  4 10 14 29 10.0000000  0  6G 2G 4G 5G 9G10G24
  20856919.358   109603859.27248  20856916.950    85405593.94049
  20389027.481   107145068.73949  20389027.189    83489655.27349
  22088740.892   116077118.21948  22088741.064    90449707.58048
  23547446.937   123742663.56447  23547447.845    96422855.99648
  24049218.484   126379504.43845  24049220.483    98477550.04147
  23529607.499   123648905.03244         0.000           0.00040
  5  4 10 14 29 15.0000000  0  6G 2G 4G 5G 9G10G24
  20855379.943   109595769.59449  20855377.529    85399290.29949
  20390388.466   107152220.76149  20390388.175    83495228.28049
  22086437.980   116065016.36747  22086438.153    90440277.57448
  23549423.267   123753049.16048  23549424.183    96430948.64748
  24045540.660   126360177.43446  24045542.658    98462490.05647
  23532473.094   123663963.39744         0.000           0.00040
  5  4 10 14 29 20.0000000  0  6G 2G 4G 5G 9G10G24
  20853856.105   109587761.77048  20853853.684    85393050.43849
  20391764.826   107159453.58649  20391764.535    83500864.24849
  22084150.630   116052996.26248  22084150.796    90430911.26148
  23551414.848   123763514.89548  23551415.765    96439103.74748
  24041876.477   126340922.02346  24041878.474    98447485.83547
  23535352.388   123679094.00444         0.000           0.00040
  5  4 10 14 29 25.0000000  0  6G 2G 4G 5G 9G10G24
  20852318.622   109579682.27148  20852316.200    85386754.73349
  20393127.367   107166613.75349  20393127.076    83506443.59449
  22081849.621   116040904.37548  22081849.787    90421489.01548
  23553392.472   123773907.21848  23553393.381    96447201.63148
  24038196.689   126321584.67246  24038198.679    98432417.78247
  23538215.868   123694143.22444  23538219.465    96385077.45055
  5  4 10 14 29 30.0000000  0  6G 2G 4G 5G 9G10G24
  20850796.918   109571685.66349  20850794.496    85380523.60949
  20394505.479   107173855.78249  20394505.188    83512086.73249
  22079564.361   116028895.25648  22079564.528    90412131.26148
  23555385.508   123784380.66548  23555386.417    96455362.75048
  24034530.708   126302319.93346  24034532.702    98417406.31447
  23541094.236   123709265.67744         0.000           0.00040
  5  4 10 14 29 35.0000000  0  5G 2G 4G 5G 9G10
  20849320.365   109563926.32848  20849317.944    85374477.37549
  20395928.547   107181334.02349  20395928.250    83517913.93149
  22077324.249   116017123.32348  22077324.416    90402958.31548
  23557423.366   123795089.58747  23557424.282    96463707.34248
  24030907.926   126283282.18146  24030909.914    98402571.72547
  5  4 10 14 29 40.0000000  0  5G 2G 4G 5G 9G10
  20847801.109   109555942.61148  20847798.689    85368256.30949
  20397308.715   107188586.85549  20397308.417    83523565.48649
  22075041.405   116005126.92648  22075041.564    90393610.48048
  23559418.189   123805572.35648  23559419.099    96471875.71948
  24027240.527   126264009.83946  24027242.515    98387554.30947
  5  4 10 14 29 45.0000000  0  5G 2G 4G 5G 9G10
  20846239.278   109547735.10748  20846236.852    85361860.84749
  20398646.105   107195614.85649  20398645.807    83529041.84349
  22072715.971   115992906.65847  22072716.131    90384088.18748
  23561370.064   123815829.53047  23561370.982    96479868.32148
  24023528.587   126244503.45946  24023530.567    98372354.53547
  5  4 10 14 29 50.0000000  0  5G 2G 4G 5G 9G10
  20844722.831   109539766.12048  20844720.404    85355651.24749
  20400028.695   107202880.35049  20400028.397    83534703.25649
  22070435.906   115980924.86648  22070436.058    90374751.73348
  23563367.008   123826323.44848  23563367.934    96488045.38148
  24019860.096   126225225.44147  24019862.069    98357332.71347
  5  4 10 14 29 55.0000000  0  5G 2G 4G 5G 9G10
  20843251.885   109532036.21949  20843249.460    85349627.94649
  20401456.547   107210383.82549  20401456.248    83540550.13049
  22068201.329   115969182.11748  22068201.482    90365601.54748
  23565409.081   123837054.58548  23565410.007    96496407.30048
  24016235.152   126206176.32647  24016237.125    98342489.26547
  5  4 10 14 30  0.0000000  0  5G 2G 4G 5G 9G10
  20841767.861   109524237.68249  20841765.428    85343551.17849
  20402871.130   107217817.48249  20402870.832    83546342.58349
  22065953.668   115957370.63948  22065953.827    90356397.80748
  23567437.744   123847715.18447  23567438.669    96504714.23947
  24012595.214   126187048.29347  24012597.188    98327584.30047
  5  4 10 14 30  5.0000000  0  5G 2G 4G 5G 9G10
  20840241.556   109516216.86148  20840239.123    85337301.18249
  20404243.222   107225027.83949  20404242.924    83551961.03849
  22063663.735   115945336.90248  22063663.888    90347020.85948
  23569423.739   123858151.69047  23569424.657    96512846.58948
  24008911.018   126167687.83847  24008912.979    98312498.26747
  5  4 10 14 30 10.0000000  0  5G 2G 4G 5G 9G10
  20838731.646   109508282.26248  20838729.213    85331118.38449
  20405631.500   107232323.29249  20405631.195    83557645.80849
  22061390.188   115933389.35948  22061390.339    90337711.08848
  23571425.785   123868672.51547  23571426.704    96521044.63548
  24005241.345   126148403.45247  24005243.314    98297471.44547
  5  4 10 14 30 15.0000000  0  5G 2G 4G 5G 9G10
  20837238.221   109500434.26048  20837235.788    85325003.05949
  20407036.036   107239704.14649  20407035.738    83563397.11249
  22059133.124   115921528.34948  22059133.270    90328468.73548
  23573443.970   123879277.99247  23573444.902    96529308.60347
  24001586.159   126129195.47247  24001588.112    98282504.22447
  5  4 10 14 30 20.0000000  0  5G 2G 4G 5G 9G10
  20835761.313   109492673.08749  20835758.881    85318955.40149
  20408456.873   107247170.69749  20408456.568    83569215.20849
  22056892.584   115909754.17048  22056892.722    90319294.03848
  23575478.299   123889968.46247  23575479.224    96537638.84048
  23997945.619   126110064.21647  23997947.574    98267596.73447
  5  4 10 14 30 25.0000000  0  5G 2G 4G 5G 9G10
  20834271.712   109484845.15448  20834269.280    85312855.70549
  20409864.806   107254569.39949  20409864.501    83574980.42649
  22054639.333   115897913.28348  22054639.456    90310067.38348
  23577499.561   123900590.23447  23577500.486    96545915.54047
  23994290.427   126090856.11247  23994292.373    98252629.39247
  5  4 10 14 30 30.0000000  0  5G 2G 4G 5G 9G10
  20832740.147   109476796.75349  20832737.707    85306584.23249
  20411230.555   107261746.46049  20411230.243    83580572.94149
  22052344.137   115885851.91648  22052344.261    90300668.91148
  23579478.496   123910989.57948  23579479.428    96554018.91448
  23990591.366   126071417.38547  23990593.306    98237482.33347
  5  4 10 14 30 35.0000000  0  5G 2G 4G 5G 9G10
  20831225.356   109468836.47649  20831222.917    85300381.42049
  20412612.846   107269010.45049  20412612.541    83586233.18949
  22050065.699   115873878.64348  22050065.809    90291339.09148
  23581473.816   123921475.08447  23581474.734    96562189.45047
  23986907.161   126052056.63047  23986909.100    98222395.99847
  5  4 10 14 30 40.0000000  0  5G 2G 4G 5G 9G10
  20829727.423   109460964.78249  20829724.977    85294247.63649
  20414011.774   107276361.86849  20414011.469    83591961.56649
  22047804.120   115861993.99947  22047804.230    90282078.33748
  23583485.659   123932047.23447  23583486.578    96570427.46048
  23983237.873   126032774.39146  23983239.797    98207370.88147
  5  4 10 14 30 45.0000000  0  5G 2G 4G 5G 9G10
  20828275.712   109453335.99048  20828273.266    85288303.12449
  20415456.713   107283955.04049  20415456.408    83597878.31749
  22045588.780   115850352.30948  22045588.890    90273006.89048
  23585543.315   123942860.29047  23585544.226    96578853.21748
  23979612.891   126013724.98146  23979614.801    98192527.19047
  5  4 10 14 30 50.0000000  0  5G 2G 4G 5G 9G10
  20826811.688   109445642.55349  20826809.242    85282308.25249
  20416889.120   107291482.35949  20416888.808    83603743.75849
  22043361.138   115838646.03348  22043361.241    90263885.13248
  23587588.298   123953606.68847  23587589.203    96587227.02548
  23975973.682   125994600.87646  23975975.592    98177625.30047
  5  4 10 14 30 55.0000000  0  5G 2G 4G 5G 9G10
  20825306.148   109437730.88848  20825303.702    85276143.31649
  20418279.769   107298790.26949  20418279.456    83609438.23049
  22041091.999   115826721.59648  22041092.095    90254593.35848
  23589591.392   123964132.89047  23589592.303    96595429.22847
  23972291.044   125975248.54146  23972292.947    98162545.57547
  5  4 10 14 31  0.0000000  0  5G 2G 4G 5G 9G10
  20823817.772   109429909.38948  20823815.319    85270048.64049
  20419687.340   107306187.10449  20419687.027    83615201.99749
  22038840.025   115814887.39248  22038840.113    90245371.90048
  23591611.232   123974747.22247  23591612.143    96603700.13548
  23968623.658   125955976.29746  23968625.560    98147528.24047
  5  4 10 14 31  5.0000000  0  5G 2G 4G 5G 9G10
  20822375.964   109422332.66749  20822373.511    85264144.70749
  20421141.250   107313827.45449  20421140.937    83621155.51249
  22036634.637   115803298.03348  22036634.725    90236341.23548
  23593677.270   123985604.29648  23593678.181    96612160.18448
  23965000.956   125936938.77647  23965002.853    98132693.79747
  5  4 10 14 31 10.0000000  0  5G 2G 4G 5G 9G10
  20820863.537   109414384.81149  20820861.085    85257951.57349
  20422524.304   107321095.45249  20422523.984    83626818.89149
  22034358.662   115791337.70448  22034358.749    90227021.49648
  23595672.324   123996088.21548  23595673.235    96620329.44248
  23961305.713   125917520.14547  23961307.605    98117562.40647
  5  4 10 14 31 15.0000000  0  5G 2G 4G 5G 9G10
  20819397.814   109406682.38548  20819395.354    85251949.68549
  20423953.831   107328607.63549  20423953.511    83632672.53649
  22032129.405   115779622.90748  22032129.485    90217893.09448
  23597713.678   124006815.45148  23597714.591    96628688.29348
  23957655.275   125898336.93546  23957657.153    98102614.44847
  5  4 10 14 31 20.0000000  0  5G 2G 4G 5G 9G10
  20817920.262   109398917.76449  20817917.796    85245899.33249
  20425371.302   107336056.46149  20425370.981    83638476.80549
  22029888.353   115767846.06848  22029888.419    90208716.33748
  23599742.781   124017478.45548  23599743.693    96636997.12948
  23953991.097   125879081.55046  23953992.975    98087610.25247
  5  4 10 14 31 25.0000000  0  5G 2G 4G 5G 9G10
  20816430.947   109391091.36149  20816428.482    85239800.83649
  20426776.758   107343442.18249  20426776.437    83644231.91349
  22027635.566   115756007.53248  22027635.627    90199491.49648
  23601759.728   124028077.55248  23601760.633    96645256.16348
  23950313.237   125859754.38546  23950315.107    98072550.15147
  5  4 10 14 31 30.0000000  0  5G 2G 4G 5G 9G10
  20814988.571   109383511.65448  20814986.105    85233894.57549
  20428228.905   107351073.26849  20428228.583    83650178.21049
  22025429.742   115744415.81948  22025429.803    90190458.98648
  23603823.202   124038921.21348  23603824.114    96653705.77348
  23946680.459   125840663.98046  23946682.330    98057674.50847
  5  4 10 14 31 35.0000000  0  5G 2G 4G 5G 9G10
  20813505.257   109375716.81848  20813502.798    85227820.68249
  20429639.887   107358488.00049  20429639.573    83655955.91449
  22023183.009   115732609.12548  22023183.063    90181258.96248
  23605845.345   124049547.61648  23605846.259    96661986.08548
  23943004.830   125821348.47946  23943006.701    98042623.48147
  5  4 10 14 31 40.0000000  0  5G 2G 4G 5G 9G10
  20812039.735   109368015.44949  20812037.270    85221819.62249
  20431068.397   107365994.86849  20431068.076    83661805.42549
  22020954.086   115720896.08848  22020954.133    90172131.92848
  23607884.869   124060265.38748  23607885.777    96670337.60148
  23939345.102   125802116.51346  23939346.979    98027637.53447
  5  4 10 14 31 45.0000000  0  5G 2G 4G 5G 9G10
  20810592.088   109360408.04349  20810589.629    85215891.77549
  20432514.552   107373594.43549  20432514.224    83667727.16149
  22018743.089   115709277.18948  22018743.136    90163078.23548
  23609941.856   124071074.92548  23609942.764    96678760.61948
  23935701.373   125782968.55746  23935703.243    98012717.04347
  5  4 10 14 31 50.0000000  0  5G 2G 4G 5G 9G10
  20809103.771   109352586.88748  20809101.314    85209797.37149
  20433919.770   107380978.90449  20433919.441    83673481.28849
  22016491.443   115697444.70848  22016491.476    90153858.12548
  23611957.765   124081668.54047  23611958.660    96687015.37848
  23932015.069   125763596.96046  23932016.933    97997622.31347
  5  4 10 14 31 55.0000000  0  5G 2G 4G 5G 9G10
  20807662.761   109345014.32749  20807660.304    85203896.67649
  20435372.019   107388610.55749  20435371.683    83679428.04249
  22014287.132   115685861.00747  22014287.164    90144831.86848
  23614020.570   124092508.55847  23614021.466    96695462.12748
  23928374.207   125744464.03746  23928376.071    97982713.52847
  5  4 10 14 32  0.0000000  0  5G 2G 4G 5G 9G10
  20806181.238   109337228.90149  20806178.781    85197830.12149
  20436783.538   107396028.07549  20436783.209    83685207.90849
  22012042.363   115674064.66548  22012042.388    90135639.91548
  23616042.423   124103133.46948  23616043.312    96703741.28048
  23924690.937   125725108.38546  23924692.801    97967631.21947
  5  4 10 14 32  5.0000000  0  5G 2G 4G 5G 9G10
  20804776.483   109329846.83148  20804774.020    85192077.85749
  20438271.538   107403847.59849  20438271.202    83691301.05349
  22009874.390   115662671.86148  22009874.415    90126762.39848
  23618140.640   124114159.51347  23618141.528    96712332.97048
  23921082.537   125706146.17946  23921084.401    97952855.48547
  5  4 10 14 32 10.0000000  0  5G 2G 4G 5G 9G10
  20803302.060   109322098.68848  20803299.597    85186040.34449
  20439689.631   107411299.66749  20439689.295    83697107.84649
  22007636.798   115650913.23548  22007636.824    90117599.83748
  23620168.768   124124817.30747  23620169.664    96720637.72148
  23917402.603   125686808.05946  23917404.468    97937786.83647
  5  4 10 14 32 15.0000000  0  5G 2G 4G 5G 9G10
  20801816.658   109314292.88049  20801814.203    85179957.90149
  20441096.469   107418692.71149  20441096.132    83702868.67249
  22005388.269   115639097.13548  22005388.288    90108392.48848
  23622185.489   124135415.15347  23622186.385    96728895.76348
  23913709.826   125667402.47946  23913711.690    97922665.62147
  5  4 10 14 32 20.0000000  0  5G 2G 4G 5G 9G10
  20800378.915   109306737.46049  20800376.454    85174070.56049
  20442550.698   107426334.73749  20442550.361    83708823.49349
  22003187.443   115627531.65348  22003187.463    90099380.41548
  23624249.421   124146261.12747  23624250.310    96737347.16148
  23910062.830   125648237.38446  23910064.701    97907731.78247
  5  4 10 14 32 25.0000000  0  5G 2G 4G 5G 9G10
  20798930.298   109299124.95648  20798927.836    85168138.74549
  20443993.813   107433918.29549  20443993.469    83714732.75049
  22000975.786   115615909.38148  22000975.800    90090324.11948
  23626302.058   124157047.74447  23626302.947    96745752.30348
  23906403.112   125629005.43546  23906404.983    97892745.84747
  5  4 10 14 32 30.0000000  0  5G 2G 4G 5G 9G10
  20797470.919   109291455.86849  20797468.450    85162162.83349
  20445425.881   107441443.89249  20445425.543    83720596.85349
  21998753.438   115604230.79848  21998753.452    90081223.91348
  23628343.487   124167775.49447  23628344.369    96754111.58447
  23902730.731   125609707.03946  23902732.597    97877708.16647
  5  4 10 14 32 35.0000000  0  5G 2G 4G 5G 9G10
  20796059.436   109284038.50348  20796056.966    85156383.07349
  20446905.603   107449219.85349  20446905.258    83726656.04049
  21996579.030   115592804.20948  21996579.038    90072320.08348
  23630432.389   124178752.68347  23630433.284    96762665.21747
  23899104.397   125590650.58446  23899106.269    97862858.99047
  5  4 10 14 32 40.0000000  0  5G 2G 4G 5G 9G10
  20794607.985   109276411.07649  20794605.515    85150439.62549
  20448345.073   107456784.28949  20448344.721    83732550.40149
  21994364.701   115581167.86047  21994364.716    90063252.80448
  23632480.851   124189517.45947  23632481.739    96771053.36247
  23895436.249   125571374.33746  23895438.122    97847838.54147
  5  4 10 14 32 45.0000000  0  5G 2G 4G 5G 9G10
  20793204.609   109269036.28749  20793202.133    85144693.04249
  20449832.349   107464599.97649  20449832.004    83738640.54449
  21992198.515   115569784.48048  21992198.525    90054382.64448
  23634576.980   124200532.56548  23634577.874    96779636.52847
  23891814.310   125552340.95046  23891816.190    97833007.33747
  5  4 10 14 32 50.0000000  0  5G 2G 4G 5G 9G10
  20791732.110   109261298.28348  20791729.641    85138663.43149
  20451250.236   107472050.99249  20451249.884    83744446.52449
  21989963.264   115558038.18548  21989963.281    90045229.69548
  23636603.521   124211182.11048  23636604.408    96787934.87447
  23888121.400   125532934.57946  23888123.281    97817885.49147
  5  4 10 14 32 55.0000000  0  5G 2G 4G 5G 9G10
  20790307.784   109253813.39948  20790305.315    85132831.05449
  20452716.004   107479753.65649  20452715.651    83750448.59749
  21987776.248   115546545.33848  21987776.272    90036274.22848
  23638677.808   124222082.43748  23638678.694    96796428.60447
  23884474.826   125513771.64046  23884476.715    97802953.31747
  5  4 10 14 33  0.0000000  0  5G 2G 4G 5G 9G10
  20788902.422   109246428.17548  20788899.946    85127076.33649
  20454200.466   107487554.52349  20454200.113    83756527.18949
  21985608.260   115535152.48348  21985608.292    90027396.67848
  23640770.575   124233080.00347  23640771.441    96804998.14747
  23880845.337   125494698.60946  23880847.218    97788091.23047
  5  4 10 14 33  5.0000000  0  5G 2G 4G 5G 9G10
  20787428.118   109238680.68748  20787425.642    85121039.33949
  20455615.701   107494991.63449  20455615.341    83762322.34249
  21983371.395   115523397.65148  21983371.429    90018237.06748
  23642793.966   124243712.93248  23642794.831    96813283.53148
  23877145.065   125475253.61346  23877146.939    97772939.29947
  5  4 10 14 33 10.0000000  0  5G 2G 4G 5G 9G10
  20786002.184   109231187.35448  20785999.709    85115200.38049
  20457079.019   107502681.42049  20457078.659    83768314.38249
  21981182.968   115511897.32748  21981183.002    90009275.76248
  23644865.259   124254597.61847  23644866.117    96821765.10147
  23873491.321   125456053.02546  23873493.195    97757977.79647
  5  4 10 14 33 15.0000000  0  5G 2G 4G 5G 9G10
  20784595.377   109223794.56149  20784592.901    85109439.76849
  20458561.200   107510470.33749  20458560.833    83774383.67249
  21979013.724   115500497.90248  21979013.758    90000393.10248
  23646955.213   124265580.39947  23646956.072    96830323.11848
  23869854.842   125436943.29147  23869856.701    97743087.11747
  5  4 10 14 33 20.0000000  0  5G 2G 4G 5G 9G10
  20783178.453   109216348.54349  20783175.970    85103637.67449
  20460032.967   107518204.49049  20460032.600    83780410.27749
  21976834.435   115489045.66448  21976834.462    89991469.28248
  23649034.583   124276507.56547  23649035.450    96838837.79047
  23866206.399   125417770.65847  23866208.251    97728147.42047
  5  4 10 14 33 25.0000000  0  5G 2G 4G 5G 9G10
  20781751.449   109208849.62248  20781748.974    85097794.36349
  20461494.376   107525884.24949  20461494.015    83786394.49849
  21974645.157   115477540.89747  21974645.184    89982504.52148
  23651103.418   124287379.39548  23651104.278    96847309.35647
  23862546.074   125398535.45847  23862547.920    97713158.94347
  5  4 10 14 33 30.0000000  0  5G 2G 4G 5G 9G10
  20780343.752   109201452.12048  20780341.276    85092030.07649
  20462974.797   107533663.87949  20462974.429    83792456.54549
  21972475.253   115466137.97347  21972475.280    89973619.13048
  23653191.083   124298350.21248  23653191.949    96855858.05147
  23858903.200   125379392.05647  23858905.032    97698242.02047
  5  4 10 14 33 35.0000000  0  5G 2G 4G 5G 9G10
  20778955.422   109194156.42748  20778952.946    85086345.12649
  20464474.294   107541543.82349  20464473.933    83798596.76449
  21970324.786   115454837.22448  21970324.814    89964813.35948
  23655297.675   124309420.30248  23655298.547    96864484.06347
  23855277.866   125360340.79747  23855279.698    97683396.88547
  5  4 10 14 33 40.0000000  0  5G 2G 4G 5G 9G10
  20777498.615   109186500.86049  20777496.147    85080379.74849
  20465905.016   107549062.28949  20465904.649    83804455.30649
  21968105.931   115443177.00348  21968105.952    89955727.46248
  23657335.301   124320128.03848  23657336.174    96872827.74247
  23851582.215   125340920.02146  23851584.047    97668263.80947
  5  4 10 14 33 45.0000000  0  5G 2G 4G 5G 9G10
  20776090.585   109179101.63949  20776088.110    85074614.13549
  20467384.226   107556835.58849  20467383.857    83810512.41749
  21965935.937   115431773.57448  21965935.952    89946841.67548
  23659421.242   124331089.60348  23659422.114    96881369.19347
  23847933.526   125321746.00046  23847935.352    97653323.01447
  5  4 10 14 33 50.0000000  0  5G 2G 4G 5G 9G10
  20774672.806   109171651.16148  20774670.339    85068808.56549
  20468853.389   107564556.09249  20468853.020    83816528.39349
  21963756.276   115420319.34948  21963756.300    89937916.30048
  23661496.954   124341997.42048  23661497.825    96889868.75947
  23844273.225   125302511.17545  23844275.049    97638334.87447
  5  4 10 14 33 55.0000000  0  5G 2G 4G 5G 9G10
  20773274.633   109164303.74248  20773272.164    85063083.30649
  20470341.861   107572378.03349  20470341.492    83822623.40749
  21961596.294   115408968.59948  21961596.311    89929071.56948
  23663591.777   124353005.69847  23663592.649    96898446.61647
  23840630.727   125283369.78146  23840632.558    97623419.51347
  5  4 10 14 34  0.0000000  0  5G 2G 4G 5G 9G10
  20771837.494   109156751.49648  20771835.027    85057198.43949
  20471791.059   107579993.65449  20471790.690    83828557.66149
  21959397.438   115397413.49748  21959397.456    89920067.59348
  23665647.123   124363806.67447  23665647.993    96906862.97147
  23836947.451   125264014.06946  23836949.276    97608337.15147
  5  4 10 14 34  5.0000000  0  5G 2G 4G 5G 9G10
  20770478.666   109149610.83948  20770476.199    85051634.29649
  20473318.285   107588019.24749  20473317.909    83834811.36549
  21957276.973   115386270.41248  21957276.992    89911384.68048
  23667780.324   124375016.65947  23667781.187    96915598.01347
  23833340.674   125245060.35646  23833342.485    97593568.03947
  5  4 10 14 34 10.0000000  0  5G 2G 4G 5G 9G10
  20769051.666   109142111.90349  20769049.198    85045790.96649
  20474777.012   107595684.91049  20474776.643    83840784.60649
  21955088.423   115374769.53647  21955088.449    89902422.96448
  23669844.850   124385865.78548  23669845.733    96924051.85947
  23829663.925   125225738.81946  23829665.737    97578512.27547
  5  4 10 14 34 15.0000000  0  5G 2G 4G 5G 9G10
  20767673.802   109134871.17848  20767671.335    85040148.84649
  20476284.575   107603607.17449  20476284.205    83846957.79249
  21952949.102   115363527.32447  21952949.135    89893662.79848
  23671958.026   124396970.50848  23671958.916    96932704.86447
  23826034.465   125206665.94046  23826036.269    97563650.30747
  5  4 10 14 34 20.0000000  0  5G 2G 4G 5G 9G10
  20766227.869   109127272.78048  20766225.401    85034228.02049
  20477723.767   107611170.21049  20477723.396    83852851.06849
  21950741.806   115351927.96848  21950741.847    89884624.35448
  23674002.657   124407714.99048  23674003.547    96941077.16247
  23822335.145   125187225.94146  23822336.943    97548502.27747
  5  4 10 14 34 25.0000000  0  5G 2G 4G 5G 9G10
  20764831.160   109119933.02349  20764828.692    85028508.73049
  20479211.877   107618990.25049  20479211.500    83858944.60549
  21948583.831   115340587.76948  21948583.886    89875787.83348
  23676096.000   124418715.48647  23676096.890    96949648.95747
  23818683.235   125168035.05947  23818685.027    97533548.35347
  5  4 10 14 34 30.0000000  0  5G 2G 4G 5G 9G10
  20763454.468   109112698.46148  20763452.001    85022871.41149
  20480719.691   107626913.86849  20480719.314    83865118.85149
  21946445.978   115329353.30648  21946446.046    89867033.70548
  23678208.831   124429818.52247  23678209.715    96958300.68447
  23815049.536   125148939.87447  23815051.329    97518668.99847
  5  4 10 14 34 35.0000000  0  5G 2G 4G 5G 9G10
  20762068.482   109105415.05449  20762066.015    85017196.02949
  20482217.896   107634786.95549  20482217.512    83871253.72149
  21944298.943   115318070.52748  21944299.011    89858241.92548
  23680311.887   124440870.12248  23680312.763    96966912.31347
  23811404.724   125129786.37947  23811406.503    97503744.23447
  5  4 10 14 34 40.0000000  0  5G 2G 4G 5G 9G10
  20760673.342   109098083.54348  20760670.874    85011483.16249
  20483706.621   107642610.28949  20483706.243    83877349.82749
  21942142.834   115306740.15948  21942142.901    89849413.07748
  23682405.271   124451870.86647  23682406.153    96975484.30247
  23807748.994   125110575.29947  23807750.782    97488774.54247
  5  4 10 14 34 45.0000000  0  5G 2G 4G 5G 9G10
  20759298.328   109090857.82948  20759295.861    85005852.74249
  20485215.162   107650537.69549  20485214.777    83883527.02349
  21940006.982   115295516.09048  21940007.043    89840667.03448
  23684518.261   124462974.73848  23684519.136    96984136.67747
  23804111.572   125091460.51547  23804113.354    97473879.91447
  5  4 10 14 34 50.0000000  0  5G 2G 4G 5G 9G10
  20757943.487   109083738.08948  20757941.027    85000304.89349
  20486743.547   107658569.38149  20486743.163    83889785.47549
  21937891.394   115284398.56648  21937891.455    89832004.02148
  23686650.929   124474181.92048  23686651.809    96992869.52447
  23800492.513   125072442.32847  23800494.289    97459060.57447
  5  4 10 14 34 55.0000000  0  5G 2G 4G 5G 9G10
  20756521.070   109076263.20848  20756518.611    84994480.30649
  20488204.028   107666244.26049  20488203.643    83895765.89749
  21935708.306   115272926.42648  21935708.359    89823064.70248
  23688715.489   124485031.22348  23688716.369    97001323.52047
  23796804.104   125053059.54147  23796805.880    97443957.09247
  5  4 10 14 35  0.0000000  0  5G 2G 4G 5G 9G10
  20755118.886   109068894.71448  20755116.427    84988738.63049
  20489684.431   107674023.83049  20489684.047    83901827.90449
  21933545.595   115261561.27148  21933545.642    89814208.73848
  23690799.776   124495984.16348  23690800.656    97009858.26547
  23793134.155   125033773.76947  23793135.933    97428929.20947
  5  4 10 14 35  5.0000000  0  5G 2G 4G 5G 9G10
  20753766.357   109061787.12548  20753763.897    84983200.24649
  20491214.174   107682062.65449  20491213.790    83908091.91449
  21931432.648   115250457.65948  21931432.687    89805556.57248
  23692933.194   124507195.32148  23692934.076    97018594.23147
  23789512.061   125014739.53446  23789513.832    97414097.34447
  5  4 10 14 35 10.0000000  0  5G 2G 4G 5G 9G10
  20752375.651   109054478.88748  20752373.193    84977505.51249
  20492705.384   107689899.01749  20492704.999    83914198.16849
  21929281.623   115239153.97748  21929281.663    89796748.51848
  23695027.901   124518203.05148  23695028.783    97027171.67747
  23785849.998   124995495.29446  23785851.770    97399101.84147
  5  4 10 14 35 15.0000000  0  5G 2G 4G 5G 9G10
  20751005.405   109047278.19448  20751002.947    84971894.58349
  20494216.741   107697841.24949  20494216.356    83920386.91949
  21927151.196   115227958.47748  21927151.230    89788024.75048
  23697142.526   124529315.54148  23697143.407    97035830.76847
  23782206.601   124976349.17846  23782208.380    97384182.80247
  5  4 10 14 35 20.0000000  0  5G 2G 4G 5G 9G10
  20749655.688   109040185.41648  20749653.230    84966367.74949
  20495748.306   107705889.64649  20495747.921    83926658.39149
  21925041.401   115216871.46248  21925041.435    89779385.52648
  23699277.175   124540533.19548  23699278.057    97044571.80248
  23778581.951   124957301.63646  23778583.723    97369340.59447
  5  4 10 14 35 25.0000000  0  5G 2G 4G 5G 9G10
  20748238.650   109032738.79848  20748236.185    84960565.18849
  20497212.202   107713582.53349  20497211.816    83932652.85949
  21922864.404   115205431.26347  21922864.431    89770471.09048
  23701343.964   124551394.21548  23701344.853    97053034.92747
  23774888.227   124937890.92446  23774890.001    97354215.35547
  5  4 10 14 35 30.0000000  0  5G 2G 4G 5G 9G10
  20746871.535   109025554.55948  20746869.063    84954967.08249
  20498725.703   107721536.00449  20498725.317    83938850.36149
  21920737.456   115194254.07848  21920737.483    89761761.59348
  23703460.148   124562514.80447  23703461.044    97061700.31147
  23771242.640   124918733.26546  23771244.421    97339287.31447
  5  4 10 14 35 35.0000000  0  5G 2G 4G 5G 9G10
  20745495.754   109018324.78248  20745493.282    84949333.49049
  20500230.205   107729442.18549  20500229.813    83945011.02049
  21918601.976   115183032.02248  21918601.996    89753017.12948
  23705567.131   124573587.07847  23705568.028    97070328.06147
  23767586.594   124899520.77546  23767588.368    97324316.57747
  5  4 10 14 35 40.0000000  0  5G 2G 4G 5G 9G10
  20744170.000   109011357.89648  20744167.528    84943904.74849
  20501784.381   107737609.43249  20501784.002    83951375.10249
  21916516.634   115172073.54148  21916516.653    89744478.06248
  23707723.621   124584919.38347  23707724.531    97079158.39147
  23763978.846   124880561.90046  23763980.621    97309543.42447
  5  4 10 14 35 45.0000000  0  5G 2G 4G 5G 9G10
  20742835.705   109004346.12848  20742833.234    84938441.03649
  20503329.680   107745730.03749  20503329.294    83957702.84749
  21914422.875   115161070.79648  21914422.886    89735904.50048
  23709871.014   124596203.91747  23709871.931    97087951.51147
  23760360.749   124861548.79646  23760362.523    97294728.04447
  5  4 10 14 35 50.0000000  0  5G 2G 4G 5G 9G10
  20741434.300   108996981.69848  20741431.828    84932702.51649
  20504807.528   107753496.14949  20504807.143    83963754.35949
  21912262.138   115149716.04648  21912262.148    89727056.63848
  23711950.717   124607132.88947  23711951.626    97096467.60747
  23756673.805   124842173.74446  23756675.579    97279630.59347
  5  4 10 14 35 55.0000000  0  5G 2G 4G 5G 9G10
  20740083.067   108989880.92048  20740080.596    84927169.44349
  20506335.210   107761524.17449  20506334.832    83970009.95849
  21910151.720   115138625.68948  21910151.715    89718414.79948
  23714080.080   124618322.67548  23714080.996    97105186.89647
  23753035.267   124823053.12746  23753037.033    97264731.41947
  5  4 10 14 36  0.0000000  0  5G 2G 4G 5G 9G10
  20738752.747   108982890.04148  20738750.276    84921722.00749
  20507883.445   107769660.20349  20507883.066    83976349.72149
  21908062.338   115127645.94648  21908062.333    89709859.15848
  23716229.782   124629619.46848  23716230.684    97113989.60447
  23749415.886   124804033.21347  23749417.652    97249910.72047
  5  4 10 14 36  5.0000000  0  5G 2G 4G 5G 9G10
  20737355.485   108975547.34648  20737353.007    84916000.42249
  20509364.405   107777442.63749  20509364.020    83982413.94749
  21905906.163   115116315.10648  21905906.150    89701029.92048
  23718311.994   124640561.53248  23718312.895    97122515.87647
  23745727.799   124784652.21947  23745729.564    97234808.64947
  5  4 10 14 36 10.0000000  0  5G 2G 4G 5G 9G10
  20736037.825   108968622.99948  20736035.346    84910604.82449
  20510924.592   107785641.50849  20510924.207    83988802.68349
  21903829.717   115105403.31248  21903829.704    89692527.22048
  23720473.245   124651918.98448  23720474.152    97131365.83447
  23742117.564   124765680.33647  23742119.322    97220025.37447
  5  4 10 14 36 15.0000000  0  5G 2G 4G 5G 9G10
  20734653.342   108961347.49048  20734650.864    84904935.60049
  20512417.641   107793487.53149  20512417.262    83994916.46349
  21901686.594   115094141.12348  21901686.567    89683751.49748
  23722567.139   124662922.40947  23722568.053    97139939.91447
  23738438.749   124746348.09647  23738440.501    97204961.30848
  5  4 10 14 36 20.0000000  0  5G 2G 4G 5G 9G10
  20733319.294   108954337.05048  20733316.815    84899472.92649
  20513960.770   107801596.69749  20513960.391    84001235.28649
  21899594.041   115083144.71548  21899594.014    89675182.87148
  23724710.905   124674187.91247  23724711.820    97148718.21847
  23734808.620   124727271.76447  23734810.378    97190096.65647
  5  4 10 14 36 25.0000000  0  5G 2G 4G 5G 9G10
  20731947.817   108947129.89348  20731945.339    84893856.96049
  20515466.104   107809507.27949  20515465.725    84007399.37749
  21897464.212   115071952.35748  21897464.185    89666461.54748
  23726816.659   124685253.75847  23726817.582    97157340.96047
  23731139.321   124707989.56147  23731141.079    97175071.58647
  5  4 10 14 36 30.0000000  0  5G 2G 4G 5G 9G10
  20730626.841   108940188.14648  20730624.369    84888447.80949
  20517021.597   107817681.42149  20517021.219    84013768.83649
  21895385.037   115061026.21948  21895385.003    89657947.67648
  23728972.377   124696582.06946  23728973.312    97166168.19247
  23727518.802   124688963.63846  23727520.567    97160246.19548
  5  4 10 14 36 35.0000000  0  5G 2G 4G 5G 9G10
  20729297.792   108933203.95048  20729295.322    84883005.58249
  20518568.641   107825811.19249  20518568.262    84020103.71849
  21893297.930   115050058.39748  21893297.903    89649401.32048
  23731119.415   124707864.89147  23731120.345    97174960.02647
  23723888.480   124669886.13446  23723890.246    97145380.60548
  5  4 10 14 36 40.0000000  0  5G 2G 4G 5G 9G10
  20727960.754   108926177.76648  20727958.283    84877530.62949
  20520107.347   107833897.14649  20520106.968    84026404.46049
  21891202.976   115039049.34048  21891202.950    89640822.83648
  23733257.922   124719102.69747  23733258.865    97183716.72147
  23720248.402   124650757.48946  23720250.168    97130475.18847
  5  4 10 14 36 45.0000000  0  5G 2G 4G 5G 9G10
  20726615.733   108919109.63148  20726613.263    84872022.99749
  20521637.709   107841939.21949  20521637.330    84032671.00849
  21889100.190   115027999.15448  21889100.164    89632212.30848
  23735387.844   124730295.54547  23735388.789    97192438.43247
  23716598.616   124631577.76746  23716600.371    97115529.97248
  5  4 10 14 36 50.0000000  0  5G 2G 4G 5G 9G10
  20725262.860   108912000.26748  20725260.390    84866483.24049
  20523159.844   107849938.12749  20523159.465    84038903.92649
  21886989.710   115016908.56848  21886989.691    89623570.30748
  23737509.349   124741444.09447  23737510.299    97201125.60247
  23712939.259   124612347.68346  23712941.022    97100545.48548
  5  4 10 14 36 55.0000000  0  5G 2G 4G 5G 9G10
  20723960.761   108905157.69048  20723958.290    84861151.36049
  20524732.390   107858201.85149  20524732.019    84045343.17649
  21884930.154   115006085.53148  21884930.135    89615136.77148
  23739681.044   124752856.40047  23739682.002    97210018.29747
  23709328.920   124593375.25347  23709330.682    97085761.77947
  5  4 10 14 37  0.0000000  0  5G 2G 4G 5G 9G10
  20722621.523   108898119.95048  20722619.060    84855667.40649
  20526267.444   107866268.61149  20526267.073    84051628.96549
  21882833.647   114995068.25148  21882833.630    89606551.86848
  23741815.025   124764070.51547  23741815.990    97218756.56147
  23705679.727   124574198.64847  23705681.491    97070818.98348
  5  4 10 14 37  5.0000000  0  5G 2G 4G 5G 9G10
  20721274.537   108891041.45948  20721272.074    84850151.69249
  20527794.364   107874292.60049  20527793.986    84057881.42149
  21880729.524   114984011.04048  21880729.506    89597935.86348
  23743940.676   124775240.79046  23743941.649    97227460.65447
  23702021.060   124554972.22247  23702022.817    97055837.35748
  5  4 10 14 37 10.0000000  0  5G 2G 4G 5G 9G10
  20719978.467   108884230.56348  20719976.003    84844844.49949
  20529371.828   107882582.22849  20529371.450    84064340.87149
  21878676.478   114973222.24048  21878676.467    89589529.01348
  23746116.632   124786675.51747  23746117.612    97236370.82547
  23698411.579   124536004.33447  23698413.344    97041057.19948
  5  4 10 14 37 15.0000000  0  5G 2G 4G 5G 9G10
  20718616.117   108877071.39948  20718613.661    84839265.93449
  20530882.645   107890521.62749  20530882.267    84070527.41449
  21876557.334   114962086.06648  21876557.324    89580851.47748
  23748225.752   124797758.92246  23748226.753    97245007.21747
  23694734.104   124516679.13347  23694735.868    97025998.61248
  5  4 10 14 37 20.0000000  0  5G 2G 4G 5G 9G10
  20717275.487   108870026.37148  20717273.031    84833776.30849
  20532414.807   107898573.19048  20532414.428    84076801.35849
  21874460.081   114951064.92548  21874460.071    89572263.57748
  23750355.988   124808953.26346  23750357.003    97253730.04847
  23691076.653   124497459.07147  23691078.432    97011021.92947
  5  4 10 14 37 25.0000000  0  5G 2G 4G 5G 9G10
  20715985.893   108863249.47749  20715983.436    84828495.60349
  20533997.622   107906890.90749  20533997.237    84083282.69549
  21872414.033   114940312.83748  21872414.023    89563885.31948
  23752536.663   124820412.63346  23752537.691    97262659.38547
  23687468.473   124478498.10947  23687470.251    96996247.18747
  5  4 10 14 37 30.0000000  0  5G 2G 4G 5G 9G10
  20714630.148   108856124.99149  20714627.685    84822944.06249
  20535513.907   107914859.04049  20535513.529    84089491.62649
  21870302.009   114929214.04648  21870301.998    89555236.90048
  23754650.583   124831521.26146  23754651.618    97271315.43547
  23683792.470   124459180.55646  23683794.249    96981194.54247
  5  4 10 14 37 35.0000000  0  5G 2G 4G 5G 9G10
  20713325.539   108849269.25448  20713323.083    84817601.93349
  20537080.950   107923093.87749  20537080.565    84095908.38049
  21868241.286   114918384.84248  21868241.269    89546798.55948
  23756815.000   124842895.41346  23756816.048    97280178.41747
  23680165.872   124440122.74746  23680167.657    96966344.31747
  5  4 10 14 37 40.0000000  0  5G 2G 4G 5G 9G10
  20712013.506   108842374.47348  20712011.043    84812229.38149
  20538640.194   107931287.72649  20538639.809    84102293.19049
  21866173.299   114907517.52848  21866173.280    89538330.52248
  23758971.412   124854227.37246  23758972.474    97289008.49347
  23676530.147   124421016.91346  23676531.924    96951456.66247
  5  4 10 14 37 45.0000000  0  5G 2G 4G 5G 9G10
  20710694.112   108835441.04548  20710691.656    84806826.71349
  20540191.689   107939440.88749  20540191.297    84108646.30749
  21864098.148   114896612.50748  21864098.129    89529833.09548
  23761119.851   124865517.49446  23761120.932    97297805.97847
  23672885.385   124401863.59146  23672887.168    96936531.99447
  5  4 10 14 37 50.0000000  0  5G 2G 4G 5G 9G10
  20709396.700   108828623.06948  20709394.245    84801514.00049
  20541764.762   107947707.44349  20541764.378    84115087.77749
  21862045.135   114885823.85148  21862045.110    89521426.35648
  23763289.636   124876919.88846  23763290.732    97306690.97747
  23669260.873   124382816.68146  23669262.661    96921690.24247
  5  4 10 14 37 55.0000000  0  5G 2G 4G 5G 9G10
  20708062.707   108821612.88548  20708060.259    84796051.51849
  20543300.884   107955779.78849  20543300.493    84121377.91249
  21859955.710   114874843.91048  21859955.692    89512870.57048
  23765422.266   124888126.83847  23765423.370    97315423.64647
  23665598.088   124363568.68047  23665599.876    96906691.81347
  5  4 10 14 38  0.0000000  0  5G 2G 4G 5G 9G10
  20706750.734   108814718.45048  20706748.285    84790679.23449
  20544858.647   107963965.85649  20544858.263    84127756.65849
  21857888.504   114863980.67148  21857888.481    89504405.71848
  23767576.288   124899446.30447  23767577.406    97324244.00147
  23661955.620   124344427.50947  23661957.401    96891776.64547
  5  4 10 14 38  5.0000000  0  5G 2G 4G 5G 9G10
  20705490.167   108808094.09948  20705487.726    84785517.39649
  20546467.400   107972419.94049  20546467.016    84134344.26349
  21855872.877   114853388.47848  21855872.854    89496152.06248
  23769781.092   124911032.59247  23769782.217    97333272.27048
  23658362.886   124325547.53347  23658364.674    96877064.96648
  5  4 10 14 38 10.0000000  0  5G 2G 4G 5G 9G10
  20704163.787   108801123.95648  20704161.346    84780086.12349
  20548009.952   107980526.07649  20548009.569    84140660.72849
  21853791.625   114842451.42548  21853791.602    89487629.68348
  23771919.456   124922269.77347  23771920.596    97342028.51447
  23654702.625   124306312.82247  23654704.406    96862076.90647
  5  4 10 14 38 15.0000000  0  5G 2G 4G 5G 9G10
  20702859.573   108794270.23248  20702857.125    84774745.55449
  20549574.279   107988746.63949  20549573.896    84147066.35649
  21851732.731   114831631.86348  21851732.715    89479198.85448
  23774079.373   124933620.15247  23774080.520    97350872.95048
  23651062.856   124287185.77147  23651064.644    96847172.72048
  5  4 10 14 38 20.0000000  0  5G 2G 4G 5G 9G10
  20701577.593   108787533.41448  20701575.146    84769496.09449
  20551160.449   107997081.98749  20551160.059    84153561.42849
  21849696.263   114820930.18348  21849696.241    89470859.89548
  23776260.896   124945084.09947  23776262.056    97359805.88248
  23647443.636   124268166.67347  23647445.418    96832352.65747
  5  4 10 14 38 25.0000000  0  5G 2G 4G 5G 9G10
  20700288.595   108780759.68148  20700286.147    84764217.86149
  20552739.192   108005378.33949  20552738.803    84160026.11949
  21847652.972   114810192.58548  21847652.956    89462492.92248
  23778434.774   124956507.81247  23778435.950    97368707.45548
  23643815.727   124249101.85247  23643817.503    96817496.94947
  5  4 10 14 38 30.0000000  0  5G 2G 4G 5G 9G10
  20699021.903   108774103.17348  20699019.456    84759030.97149
  20554339.864   108013789.89649  20554339.482    84166580.56949
  21845632.179   114799573.28048  21845632.150    89454218.15248
  23780630.316   124968045.49547  23780631.499    97377697.86248
  23640208.432   124230145.45047  23640210.207    96802725.73748
  5  4 10 14 38 35.0000000  0  5G 2G 4G 5G 9G10
  20697689.666   108767102.22048  20697687.219    84753575.68349
  20555874.577   108021854.86249  20555874.187    84172864.96449
  21843546.045   114788610.53748  21843546.014    89445675.74548
  23782759.668   124979235.34647  23782760.858    97386417.23148
  23636533.925   124210835.75647  23636535.700    96787679.21647
  5  4 10 14 38 40.0000000  0  5G 2G 4G 5G 9G10
  20696409.127   108760372.94348  20696406.681    84748332.09649
  20557460.568   108030189.30349  20557460.179    84179359.33649
  21841511.801   114777920.51648  21841511.764    89437345.86248
  23784940.095   124990693.50247  23784941.293    97395345.65548
  23632909.416   124191788.92347  23632911.198    96772837.54847
  5  4 10 14 38 45.0000000  0  5G 2G 4G 5G 9G10
  20695151.059   108753761.75148  20695148.613    84743180.51649
  20559068.637   108038639.69949  20559068.248    84185944.04649
  21839500.231   114767349.64548  21839500.180    89429108.82448
  23787142.349   125002266.43047  23787143.555    97404363.51947
  23629305.714   124172851.40747  23629307.497    96758081.05647
  5  4 10 14 38 50.0000000  0  5G 2G 4G 5G 9G10
  20693827.588   108746806.86448  20693825.142    84737761.12449
  20560610.880   108046744.27249  20560610.491    84192259.30349
  21837423.466   114756436.13648  21837423.414    89420604.78148
  23789278.571   125013492.25647  23789279.784    97413110.89447
  23625634.948   124153561.40047  23625636.732    96743049.89048
  5  4 10 14 38 55.0000000  0  5G 2G 4G 5G 9G10
  20692526.619   108739970.22448  20692524.172    84732433.87249
  20562175.220   108054964.90449  20562174.832    84198664.98749
  21835369.403   114745641.96548  21835369.344    89412193.73948
  23791436.637   125024832.97247  23791437.856    97421947.80847
  23621985.025   124134380.89247  23621986.810    96728104.03547
  5  4 10 14 39  0.0000000  0  5G 2G 4G 5G 9G10
  20691248.222   108733252.20148  20691245.782    84727199.04649
  20563761.727   108063302.05749  20563761.345    84205161.46349
  21833338.134   114734967.54048  21833338.068    89403876.00348
  23793616.671   125036288.90846  23793617.905    97430874.46047
  23618355.991   124115310.28847  23618357.770    96713243.85247
  5  4 10 14 39  5.0000000  0  5G 2G 4G 5G 9G10
  20689992.448   108726653.06648  20689990.016    84722056.86249
  20565370.440   108071755.89849  20565370.058    84211748.87349
  21831329.685   114724413.10048  21831329.617    89395651.76748
  23795818.643   125047860.31447  23795819.891    97439891.13147
  23614747.937   124096349.83246  23614749.722    96698469.46547
  5  4 10 14 39 10.0000000  0  5G 2G 4G 5G 9G10
  20688700.677   108719864.76548  20688698.239    84716767.28149
  20566942.749   108080018.43649  20566942.367    84218187.21749
  21829285.456   114713670.60748  21829285.383    89387280.99948
  23797983.958   125059239.12246  23797985.220    97448757.72947
  23611102.225   124077191.51846  23611104.010    96683540.91647
  5  4 10 14 39 15.0000000  0  5G 2G 4G 5G 9G10
  20687402.318   108713041.84348  20687399.887    84711450.71649
  20568508.058   108088244.16249  20568507.670    84224596.87149
  21827234.866   114702894.58848  21827234.785    89378884.08248
  23800142.030   125070579.83647  23800143.306    97457594.63747
  23607448.264   124057989.91846  23607450.049    96668578.64947
  5  4 10 14 39 20.0000000  0  5G 2G 4G 5G 9G10
  20686126.718   108706338.48549  20686124.287    84706227.31749
  20570095.708   108096587.28849  20570095.327    84231097.99849
  21825207.234   114692239.27948  21825207.140    89370581.24548
  23802322.198   125082036.63547  23802323.475    97466522.00447
  23603815.413   124038899.15646  23603817.198    96653702.73347
  5  4 10 14 39 25.0000000  0  5G 2G 4G 5G 9G10
  20684873.955   108699755.20449  20684871.530    84701097.48849
  20571705.779   108105048.26949  20571705.399    84237690.97349
  21823202.664   114681705.19248  21823202.569    89362372.86248
  23804524.564   125093610.05247  23804525.855    97475540.22647
  23600203.739   124019919.77946  23600205.525    96638913.62947
  5  4 10 14 39 30.0000000  0  5G 2G 4G 5G 9G10
  20683614.692   108693137.76548  20683612.261    84695941.05149
  20573308.929   108113472.84549  20573308.542    84244255.57749
  21821191.802   114671138.10348  21821191.700    89354138.78348
  23806719.756   125105145.80347  23806721.069    97484529.10347
  23596583.942   124000897.58346  23596585.728    96624091.13647
  5  4 10 14 39 35.0000000  0  5G 2G 4G 5G 9G10
  20682349.025   108686486.57449  20682346.600    84690758.29049
  20574905.225   108121861.43849  20574904.838    84250792.14049
  21819174.742   114660538.38448  21819174.640    89345879.26148
  23808907.887   125116644.35146  23808909.220    97493488.96647
  23592956.077   123981833.02746  23592957.857    96609235.64047
  5  4 10 14 39 40.0000000  0  5G 2G 4G 5G 9G10
  20681077.001   108679802.10448  20681074.576    84685549.62749
  20576494.763   108130214.48849  20576494.377    84257301.00749
  21817151.576   114649906.57348  21817151.467    89337594.73748
  23811088.998   125128106.10646  23811090.345    97502420.18347
  23589320.229   123962726.57746  23589322.009    96594347.51147
  5  4 10 14 39 45.0000000  0  5G 2G 4G 5G 9G10
  20679857.274   108673392.39949  20679854.856    84680555.04749
  20578136.156   108138840.06349  20578135.769    84264022.23249
  21815180.926   114639550.73748  21815180.817    89329525.25348
  23813321.709   125139839.07947  23813323.062    97511562.75547
  23585735.039   123943886.27646  23585736.812    96579666.76247
  5  4 10 14 39 50.0000000  0  5G 2G 4G 5G 9G10
  20678572.707   108666641.95049  20678570.282    84675294.96049
  20579712.286   108147122.68449  20579711.907    84270476.22049
  21813145.656   114628855.35448  21813145.554    89321191.19348
  23815488.912   125151227.74947  23815490.280    97520437.02447
  23582083.365   123924696.66446  23582085.139    96564713.83247
  5  4 10 14 39 55.0000000  0  5G 2G 4G 5G 9G10
  20677311.222   108660012.83549  20677308.803    84670129.41649
  20581311.076   108155524.34949  20581310.690    84277022.97049
  21811133.716   114618282.50548  21811133.614    89312952.60448
  23817678.527   125162734.18647  23817679.900    97529403.06047
  23578453.142   123905619.80446  23578454.901    96549848.77348
  5  4 10 14 40  0.0000000  0  5G 2G 4G 5G 9G10
  20676043.585   108653351.35549  20676041.167    84664938.65649
  20582903.278   108163891.39749  20582902.892    84283542.74249
  21809115.833   114607678.46148  21809115.739    89304689.71248
  23819861.301   125174204.64847  23819862.683    97538341.06547
  23574815.136   123886501.95446  23574816.896    96534951.75047
  5  4 10 14 40  5.0000000  0  5G 2G 4G 5G 9G10
  20674799.110   108646811.60048  20674796.691    84659842.73849
  20584518.214   108172377.91049  20584517.828    84290155.60449
  21807121.348   114597197.37048  21807121.247    89296522.63148
  23822066.527   125185793.25347  23822067.909    97547371.16047
  23571198.672   123867497.30846  23571200.439    96520142.93047
  5  4 10 14 40 10.0000000  0  5G 2G 4G 5G 9G10
  20673519.275   108640086.01849  20673516.856    84654602.02849
  20586097.333   108180676.23949  20586096.949    84296621.83849
  21805091.725   114586531.69248  21805091.624    89288211.72648
  23824235.729   125197192.42247  23824237.112    97556253.62147
  23567545.215   123848298.26047  23567546.982    96505182.63547
  5  4 10 14 40 15.0000000  0  5G 2G 4G 5G 9G10
  20672292.044   108633636.87548  20672289.626    84649576.72249
  20587728.618   108189248.66949  20587728.234    84303301.64849
  21803114.959   114576143.68748  21803114.865    89280117.16748
  23826456.832   125208864.39847  23826458.217    97565348.67247
  23563942.721   123829367.12447  23563944.481    96490431.12247
  5  4 10 14 40 20.0000000  0  5G 2G 4G 5G 9G10
  20671029.515   108627002.27548  20671027.103    84644406.90649
  20589324.174   108197633.40149  20589323.796    84309835.20849
  21801103.127   114565571.46948  21801103.033    89271879.08248
  23828641.969   125220347.27747  23828643.360    97574296.34347
  23560303.344   123810242.03847  23560305.110    96475528.44347
  5  4 10 14 40 25.0000000  0  5G 2G 4G 5G 9G10
  20669819.670   108620644.49549  20669817.259    84639452.79549
  20590971.972   108206292.60549  20590971.595    84316582.63649
  21799144.214   114555277.34348  21799144.128    89263857.69148
  23830879.066   125232103.33147  23830880.456    97583456.91047
  23556715.007   123791385.29146  23556716.759    96460834.90247
  5  4 10 14 40 30.0000000  0  5G 2G 4G 5G 9G10
  20668545.326   108613947.77349  20668542.916    84634234.57249
  20592554.828   108214610.54149  20592554.451    84323064.13749
  21797121.051   114544645.58148  21797120.964    89255573.20748
  23833050.995   125243516.77147  23833052.392    97592350.47047
  23553060.563   123772181.08946  23553062.315    96445870.59547
  5  4 10 14 40 35.0000000  0  5G 2G 4G 5G 9G10
  20667323.757   108607528.38649  20667321.347    84629232.45449
  20594189.998   108223203.41749  20594189.615    84329759.89049
  21795150.908   114534292.40848  21795150.828    89247505.79748
  23835274.981   125255203.86847  23835276.387    97601457.29448
  23549457.265   123753245.72646  23549459.019    96431115.79347
  5  4 10 14 40 40.0000000  0  5G 2G 4G 5G 9G10
  20666067.066   108600924.42649  20666064.655    84624086.50749
  20595789.617   108231609.44049  20595789.235    84336310.03649
  21793145.899   114523756.01448  21793145.812    89239295.62348
  23837463.154   125266702.69847  23837464.567    97610417.40047
  23545817.255   123734117.34247  23545819.002    96416210.56548
  5  4 10 14 40 45.0000000  0  5G 2G 4G 5G 9G10
  20664804.586   108594290.04949  20664802.168    84618916.86849
  20597382.995   108239982.66849  20597382.613    84342834.62349
  21791135.358   114513190.49048  21791135.271    89231062.72948
  23839644.835   125278167.41546  23839646.256    97619350.92648
  23542169.830   123714950.08746  23542171.578    96401275.06948
  5  4 10 14 40 50.0000000  0  5G 2G 4G 5G 9G10
  20663565.661   108587779.48449  20663563.250    84613843.70349
  20598999.486   108248477.38649  20598999.111    84349453.88149
  21789148.620   114502750.08148  21789148.526    89222927.34248
  23841849.362   125289752.22246  23841850.783    97628378.03548
  23538544.398   123695898.22147  23538546.148    96386429.44548
  5  4 10 14 40 55.0000000  0  5G 2G 4G 5G 9G10
  20662350.375   108581393.08349  20662347.957    84608867.28249
  20600639.153   108257093.86449  20600638.779    84356168.01449
  21787185.761   114492435.18648  21787185.667    89214889.76148
  23844076.797   125301457.46946  23844078.231    97637499.00047
  23534940.965   123676962.08747  23534942.697    96371674.03747
  5  4 10 14 41  0.0000000  0  5G 2G 4G 5G 9G10
  20661129.424   108574976.97749  20661127.014    84603867.72549
  20602272.691   108265678.12949  20602272.317    84362857.04749
  21785217.498   114482091.92448  21785217.395    89206830.08348
  23846297.876   125313129.25846  23846299.325    97646593.88347
  23531330.281   123657987.81447  23531332.006    96356888.89347
  5  4 10 14 41  5.0000000  0  5G 2G 4G 5G 9G10
  20659902.866   108568531.33648  20659900.449    84598845.14649
  20603900.159   108274230.53449  20603899.793    84369521.26049
  21783243.887   114471720.49648  21783243.791    89198748.44048
  23848512.626   125324767.75347  23848514.083    97655662.81947
  23527712.405   123638975.65347  23527714.124    96342074.20947
  5  4 10 14 41 10.0000000  0  5G 2G 4G 5G 9G10
  20658700.012   108562210.26849  20658697.603    84593919.63049
  20605550.895   108282905.20749  20605550.535    84376280.74049
  21781294.233   114461474.99548  21781294.131    89190764.93848
  23850750.357   125336527.04546  23850751.827    97664825.88547
  23524116.639   123620079.71147  23524118.358    96327350.08847
  5  4 10 14 41 15.0000000  0  5G 2G 4G 5G 9G10
  20657433.007   108555552.14249  20657430.597    84588731.48449
  20607137.015   108291240.29749  20607136.649    84382775.61349
  21779280.694   114450893.77748  21779280.599    89182519.83048
  23852923.224   125347945.44546  23852924.708    97673723.31347
  23520455.108   123600838.36247  23520456.807    96312356.86647
  5  4 10 14 41 20.0000000  0  5G 2G 4G 5G 9G10
  20656219.090   108549172.99749  20656216.687    84583760.72549
  20608775.769   108299852.00749  20608775.410    84389486.03449
  21777320.510   114440592.97048  21777320.409    89174493.24349
  23855148.448   125359639.08046  23855149.940    97682835.23447
  23516845.115   123581867.59647  23516846.814    96297574.42447
  5  4 10 14 41 25.0000000  0  5G 2G 4G 5G 9G10
  20654999.711   108542765.11648  20654997.308    84578767.57449
  20610408.610   108308432.60949  20610408.252    84396172.21649
  21775355.131   114430264.83648  21775355.037    89166445.34448
  23857367.460   125371300.12846  23857368.958    97691921.77347
  23513228.041   123562859.80446  23513229.733    96282763.17547
  5  4 10 14 41 30.0000000  0  5G 2G 4G 5G 9G10
  20653774.908   108536328.70048  20653772.505    84573752.17749
  20612035.535   108316982.12849  20612035.171    84402834.17749
  21773384.588   114419909.56248  21773384.502    89158376.29948
  23859580.335   125382928.83346  23859581.834    97700983.10047
  23509603.971   123543815.18847  23509605.656    96267923.21647
  5  4 10 14 41 35.0000000  0  5G 2G 4G 5G 9G10
  20652574.001   108530017.92248  20652571.599    84568834.69849
  20613685.907   108325654.89049  20613685.550    84409592.17249
  21771438.225   114409681.32448  21771438.132    89150406.24148
  23861816.395   125394679.31147  23861817.907    97710139.28747
  23506002.207   123524887.88747  23506003.892    96253174.69147
  5  4 10 14 41 40.0000000  0  5G 2G 4G 5G 9G10
  20651338.421   108523524.90549  20651336.019    84563775.20449
  20615301.126   108334142.92449  20615300.769    84416206.22349
  21769457.432   114399272.27948  21769457.346    89142295.31448
  23864017.031   125406243.73446  23864018.545    97719150.53247
  23502364.193   123505770.05546  23502365.878    96238277.69447
  5  4 10 14 41 45.0000000  0  5G 2G 4G 5G 9G10
  20650156.127   108517311.91049  20650153.725    84558933.91149
  20616969.159   108342908.46649  20616968.809    84423036.50749
  21767530.219   114389144.67848  21767530.134    89134403.67048
  23866270.228   125418084.23946  23866271.749    97728376.87048
  23498777.900   123486923.95646  23498779.593    96223592.42547
  5  4 10 14 41 50.0000000  0  5G 2G 4G 5G 9G10
  20648939.213   108510916.98549  20648936.811    84553950.85049
  20618602.116   108351489.68349  20618601.761    84429723.17149
  21765568.653   114378836.58048  21765568.568    89126371.38748
  23868488.060   125429738.96347  23868489.582    97737458.46247
  23495155.404   123467887.70746  23495157.098    96208759.00647
  5  4 10 14 41 55.0000000  0  5G 2G 4G 5G 9G10
  20647746.315   108504648.22949  20647743.913    84549066.10149
  20620258.600   108360194.56549  20620258.251    84436506.19149
  21763631.375   114368656.14348  21763631.296    89118438.58148
  23870729.156   125441515.99946  23870730.683    97746635.36647
  23491555.359   123448969.34246  23491557.067    96194017.42047
  5  4 10 14 42  0.0000000  0  5G 2G 4G 5G 9G10
  20646518.852   108498197.90049  20646516.450    84544039.87549
  20621880.060   108368715.36349  20621879.706    84443145.77749
  21761659.825   114358295.64348  21761659.745    89110365.47448
  23872934.953   125453107.51146  23872936.488    97755667.70547
  23487919.191   123429861.18046  23487920.905    96179127.94547
  5  4 10 14 42  5.0000000  0  5G 2G 4G 5G 9G10
  20645286.184   108491720.18648  20645283.775    84538992.31049
  20623495.842   108377206.32549  20623495.495    84449762.10349
  21759683.357   114347909.23348  21759683.278    89102272.17049
  23875134.790   125464667.70346  23875136.331    97764675.63247
  23484276.238   123410717.45747  23484277.952    96164210.78347
  5  4 10 14 42 10.0000000  0  5G 2G 4G 5G 9G10
  20644106.969   108485523.43148  20644104.573    84534163.67749
  20625164.598   108385975.69649  20625164.251    84456595.38049
  21757760.646   114337805.28748  21757760.574    89094398.95949
  23877387.370   125476504.93446  23877388.920    97773899.41847
  23480685.237   123391846.52647  23480686.958    96149506.13847
  5  4 10 14 42 15.0000000  0  5G 2G 4G 5G 9G10
  20642922.610   108479299.55248  20642920.215    84529313.89549
  20626827.712   108394715.42049  20626827.372    84463405.55149
  21755833.054   114327675.72248  21755832.976    89086505.79648
  23879634.016   125488311.07647  23879635.579    97783098.98847
  23477087.477   123372940.29446  23477089.192    96134774.04447
  5  4 10 14 42 20.0000000  0  5G 2G 4G 5G 9G10
  20641703.803   108472894.71249  20641701.409    84524323.11949
  20628455.920   108403271.64649  20628455.581    84470072.73049
  21753871.314   114317366.67648  21753871.236    89078472.77048
  23881845.471   125499932.25446  23881847.041    97792154.43147
  23473453.746   123353844.91247  23473455.462    96119894.52847
  5  4 10 14 42 25.0000000  0  5G 2G 4G 5G 9G10
  20640509.215   108466617.10749  20640506.828    84519431.47849
  20630107.846   108411952.57849  20630107.507    84476837.09149
  21751934.079   114307186.40848  21751934.010    89070540.08948
  23884080.374   125511676.72146  23884081.946    97801305.96047
  23469842.667   123334868.59447  23469844.376    96105107.79747
